EW5603 Weather Reports


time (UTC)temp
C
wind
direction
speed
KPH
gust
KPH
rain 1hr
cm
rain 24hr
cm
rain mn
cm
humidity
%
barometer
mb
20260506162722 15 203 4.8 8.0 0.00 0.00 0.00 85 1017.8
20260506162622 15 225 3.2 6.4 0.00 0.00 0.00 85 1017.9
20260506162522 15 225 3.2 6.4 0.00 0.00 0.00 85 1017.9
20260506162422 15 203 3.2 6.4 0.00 0.00 0.00 85 1017.9
20260506162321 15 180 3.2 3.2 0.00 0.00 0.00 85 1017.8
20260506162220 15 113 3.2 8.0 0.00 0.00 0.00 84 1017.9
20260506162123 15 203 3.2 6.4 0.00 0.00 0.00 84 1017.9
20260506162042 15 225 1.6 3.2 0.00 0.00 0.00 84 1017.9
20260506161922 15 225 1.6 3.2 0.00 0.00 0.00 84 1017.9
20260506161822 15 225 3.2 8.0 0.00 0.00 0.00 83 1017.8
20260506161722 15 203 3.2 4.8 0.00 0.00 0.00 83 1017.9
20260506161622 15 203 3.2 6.4 0.00 0.00 0.00 83 1017.8
20260506161542 16 113 3.2 8.0 0.00 0.00 0.00 83 1017.8
20260506161445 16 270 3.2 4.8 0.00 0.00 0.00 83 1017.8
20260506161324 16 203 4.8 14.5 0.00 0.00 0.00 82 1017.8
20260506161243 16 180 4.8 11.3 0.00 0.00 0.00 83 1017.8
20260506161123 16 180 4.8 9.7 0.00 0.00 0.00 83 1017.8
20260506161024 16 225 3.2 6.4 0.00 0.00 0.00 82 1017.8
20260506160922 16 180 3.2 4.8 0.00 0.00 0.00 82 1017.8
20260506160844 16 180 4.8 11.3 0.00 0.00 0.00 82 1017.9
20260506160724 16 203 1.6 8.0 0.00 0.00 0.00 82 1017.9
20260506160622 16 0.0 3.2 0.00 0.00 0.00 82 1017.9
20260506160522 16 203 1.6 4.8 0.00 0.00 0.00 82 1018.0
20260506160422 16 203 4.8 8.0 0.00 0.00 0.00 82 1018.0
20260506160321 16 203 1.6 4.8 0.00 0.00 0.00 82 1018.0
20260506160222 16 0.0 3.2 0.00 0.00 0.00 82 1018.0
20260506160121 16 180 3.2 4.8 0.00 0.00 0.00 82 1018.0
20260506160022 16 203 4.8 9.7 0.00 0.00 0.00 81 1018.1
20260506155923 16 180 3.2 14.5 0.00 0.00 0.00 82 1018.0
20260506155822 16 0.0 3.2 0.00 0.00 0.00 81 1018.1
20260506155722 16 180 3.2 4.8 0.00 0.00 0.00 82 1018.1
20260506155624 16 180 3.2 6.4 0.00 0.00 0.00 82 1018.1
20260506155522 16 180 1.6 3.2 0.00 0.00 0.00 81 1018.1
20260506155442 16 180 6.4 9.7 0.00 0.00 0.00 81 1018.1
20260506155322 16 248 4.8 12.9 0.00 0.00 0.00 81 1018.1
20260506155224 16 248 1.6 3.2 0.00 0.00 0.00 81 1018.1
20260506155122 16 248 4.8 11.3 0.00 0.00 0.00 81 1018.1
20260506155023 16 248 4.8 11.3 0.00 0.00 0.00 81 1018.2
20260506154942 16 225 4.8 9.7 0.00 0.00 0.00 81 1018.2
20260506154822 16 203 8.0 12.9 0.00 0.00 0.00 81 1018.2
20260506154724 16 225 3.2 6.4 0.00 0.00 0.00 81 1018.2
20260506154622 16 90 1.6 4.8 0.00 0.00 0.00 82 1018.2
20260506154522 16 0.0 1.6 0.00 0.00 0.00 82 1018.3
20260506154423 16 203 3.2 3.2 0.00 0.00 0.00 81 1018.3
20260506154322 16 225 1.6 3.2 0.00 0.00 0.00 81 1018.2
20260506154222 16 225 4.8 6.4 0.00 0.00 0.00 81 1018.2
20260506154122 16 248 3.2 9.7 0.00 0.00 0.00 81 1018.2
20260506154023 16 180 4.8 9.7 0.00 0.00 0.00 81 1018.2
20260506153923 16 203 6.4 12.9 0.00 0.00 0.00 81 1018.3
20260506153823 16 203 3.2 6.4 0.00 0.00 0.00 81 1018.2
20260506153742 16 203 1.6 4.8 0.00 0.00 0.00 81 1018.2
20260506153642 16 203 4.8 9.7 0.00 0.00 0.00 80 1018.2
20260506153523 16 203 3.2 4.8 0.00 0.00 0.00 81 1018.2
20260506153422 16 180 8.0 11.3 0.00 0.00 0.00 81 1018.1
20260506153322 16 180 4.8 6.4 0.00 0.00 0.00 82 1018.2
20260506153222 16 203 3.2 4.8 0.00 0.00 0.00 82 1018.2
20260506153122 16 180 1.6 3.2 0.00 0.00 0.00 82 1018.2
20260506153022 16 180 1.6 3.2 0.00 0.00 0.00 82 1018.3
20260506153002 16 180 3.2 6.4 0.00 0.00 0.00 81 1018.3
20260506152842 16 225 3.2 8.0 0.00 0.00 0.00 81 1018.4
20260506152722 16 180 4.8 6.4 0.00 0.00 0.00 81 1018.4
20260506152623 16 180 4.8 8.0 0.00 0.00 0.00 81 1018.4
20260506152523 16 203 1.6 6.4 0.00 0.00 0.00 82 1018.4
20260506152422 16 225 4.8 6.4 0.00 0.00 0.00 82 1018.4
20260506152322 16 270 3.2 4.8 0.00 0.00 0.00 82 1018.3
20260506152222 16 203 4.8 9.7 0.00 0.00 0.00 81 1018.2
20260506152122 16 203 1.6 3.2 0.00 0.00 0.00 82 1018.3
20260506152023 16 203 3.2 8.0 0.00 0.00 0.00 82 1018.2
20260506151922 16 248 3.2 6.4 0.00 0.00 0.00 82 1018.1
20260506151822 16 158 6.4 9.7 0.00 0.00 0.00 82 1018.1
20260506151722 16 248 3.2 9.7 0.00 0.00 0.00 82 1018.0
20260506151622 16 203 3.2 4.8 0.00 0.00 0.00 81 1018.0
20260506151522 16 180 6.4 12.9 0.00 0.00 0.00 81 1018.0
20260506151422 16 203 4.8 6.4 0.00 0.00 0.00 81 1018.0
20260506151322 16 225 6.4 9.7 0.00 0.00 0.00 81 1018.1
20260506151242 16 203 6.4 9.7 0.00 0.00 0.00 81 1018.1
20260506151122 16 225 4.8 8.0 0.00 0.00 0.00 81 1018.1
20260506151022 16 203 4.8 8.0 0.00 0.00 0.00 81 1018.1
20260506150922 16 203 3.2 6.4 0.00 0.00 0.00 82 1018.1
20260506150822 16 203 1.6 3.2 0.00 0.00 0.00 82 1018.0
20260506150722 16 203 1.6 6.4 0.00 0.00 0.00 82 1018.0
20260506150623 16 203 4.8 6.4 0.00 0.00 0.00 82 1018.0
20260506150522 16 225 3.2 8.0 0.00 0.00 0.00 82 1018.0
20260506150421 16 203 4.8 12.9 0.00 0.00 0.00 82 1018.0
20260506150322 16 203 4.8 8.0 0.00 0.00 0.00 81 1018.0
20260506150223 16 158 4.8 6.4 0.00 0.00 0.00 83 1018.0
20260506150123 16 180 4.8 12.9 0.00 0.00 0.00 83 1018.0
20260506150023 16 180 1.6 3.2 0.00 0.00 0.00 82 1018.0
20260506145922 16 180 4.8 11.3 0.00 0.00 0.00 82 1018.0
20260506145822 16 180 4.8 9.7 0.00 0.00 0.00 82 1018.0
20260506145722 16 203 3.2 4.8 0.00 0.00 0.00 82 1018.0
20260506145622 16 203 1.6 4.8 0.00 0.00 0.00 82 1018.0
20260506145522 16 203 3.2 4.8 0.00 0.00 0.00 82 1018.0
20260506145422 16 180 4.8 8.0 0.00 0.00 0.00 82 1018.0
20260506145322 16 180 6.4 9.7 0.00 0.00 0.00 81 1018.1
20260506145222 16 203 8.0 16.1 0.00 0.00 0.00 82 1018.0
20260506145122 16 203 3.2 8.0 0.00 0.00 0.00 82 1018.1
20260506145042 16 203 4.8 9.7 0.00 0.00 0.00 81 1018.1
20260506144924 16 203 4.8 6.4 0.00 0.00 0.00 81 1018.1
20260506144822 16 225 3.2 4.8 0.00 0.00 0.00 81 1018.1
20260506144722 16 225 4.8 11.3 0.00 0.00 0.00 81 1018.1
20260506144622 16 225 4.8 8.0 0.00 0.00 0.00 81 1018.1
20260506144522 16 158 6.4 11.3 0.00 0.00 0.00 81 1018.1
20260506144503 16 203 4.8 11.3 0.00 0.00 0.00 81 1018.1
20260506144322 16 23 3.2 6.4 0.00 0.00 0.00 81 1018.1
20260506144222 16 203 4.8 8.0 0.00 0.00 0.00 81 1018.1
20260506144122 16 180 6.4 12.9 0.00 0.00 0.00 82 1018.1
20260506144043 16 158 3.2 6.4 0.00 0.00 0.00 82 1018.1
20260506143922 16 203 1.6 4.8 0.00 0.00 0.00 82 1018.1
20260506143822 16 180 4.8 9.7 0.00 0.00 0.00 82 1018.2
20260506143722 16 158 4.8 6.4 0.00 0.00 0.00 82 1018.3
20260506143622 16 248 4.8 8.0 0.00 0.00 0.00 81 1018.2
20260506143602 16 180 9.7 17.7 0.00 0.00 0.00 81 1018.3
20260506143422 16 158 4.8 9.7 0.00 0.00 0.00 81 1018.3
20260506143322 16 180 6.4 9.7 0.00 0.00 0.00 81 1018.4
20260506143222 16 203 8.0 14.5 0.00 0.00 0.00 81 1018.4
20260506143122 16 180 4.8 11.3 0.00 0.00 0.00 81 1018.4
20260506143043 16 203 4.8 8.0 0.00 0.00 0.00 81 1018.4
20260506142923 16 180 6.4 8.0 0.00 0.00 0.00 81 1018.5
20260506142845 16 248 6.4 11.3 0.00 0.00 0.00 81 1018.4
20260506142743 16 225 4.8 8.0 0.00 0.00 0.00 81 1018.4
20260506142624 16 203 6.4 9.7 0.00 0.00 0.00 81 1018.4
20260506142524 16 203 4.8 8.0 0.00 0.00 0.00 80 1018.4
20260506142425 16 203 4.8 9.7 0.00 0.00 0.00 80 1018.4
20260506142344 16 180 6.4 11.3 0.00 0.00 0.00 80 1018.4
20260506142222 16 203 4.8 9.7 0.00 0.00 0.00 80 1018.4
20260506142122 16 158 6.4 9.7 0.00 0.00 0.00 80 1018.4
20260506142022 16 203 4.8 8.0 0.00 0.00 0.00 80 1018.3
20260506141922 16 225 6.4 9.7 0.00 0.00 0.00 80 1018.3
20260506141822 17 225 6.4 12.9 0.00 0.00 0.00 80 1018.3
20260506141722 16 203 4.8 8.0 0.00 0.00 0.00 80 1018.4
20260506141622 17 203 3.2 6.4 0.00 0.00 0.00 80 1018.5
20260506141522 17 203 3.2 11.3 0.00 0.00 0.00 81 1018.4
20260506141442 17 203 6.4 14.5 0.00 0.00 0.00 80 1018.5
20260506141322 17 225 1.6 4.8 0.00 0.00 0.00 80 1018.4
20260506141223 17 158 6.4 11.3 0.00 0.00 0.00 79 1018.4
20260506141123 17 180 6.4 12.9 0.00 0.00 0.00 80 1018.4
20260506141022 17 225 8.0 19.3 0.00 0.00 0.00 80 1018.3
20260506140922 17 225 6.4 14.5 0.00 0.00 0.00 81 1018.3
20260506140843 17 225 4.8 9.7 0.00 0.00 0.00 81 1018.3
20260506140722 17 180 3.2 20.9 0.00 0.00 0.00 81 1018.3
20260506140622 16 180 8.0 22.5 0.00 0.00 0.00 81 1018.3
20260506140522 16 225 4.8 17.7 0.00 0.00 0.00 81 1018.3
20260506140422 16 203 4.8 17.7 0.00 0.00 0.00 81 1018.4
20260506140324 16 203 9.7 14.5 0.00 0.00 0.00 81 1018.4
20260506140222 16 180 4.8 12.9 0.00 0.00 0.00 81 1018.4
20260506140123 16 203 6.4 16.1 0.00 0.00 0.00 81 1018.4
20260506140022 16 203 6.4 11.3 0.00 0.00 0.00 81 1018.5
20260506135922 16 203 8.0 17.7 0.00 0.00 0.00 82 1018.5
20260506135822 16 180 3.2 9.7 0.00 0.00 0.00 82 1018.5
20260506135722 16 180 9.7 14.5 0.00 0.00 0.00 82 1018.5
20260506135622 16 180 6.4 12.9 0.00 0.00 0.00 81 1018.5
20260506135522 16 203 8.0 12.9 0.00 0.00 0.00 81 1018.6
20260506135422 16 180 6.4 11.3 0.00 0.00 0.00 81 1018.6
20260506135402 16 180 4.8 8.0 0.00 0.00 0.00 81 1018.5
20260506135222 16 180 3.2 6.4 0.00 0.00 0.00 81 1018.5
20260506135122 16 180 6.4 9.7 0.00 0.00 0.00 81 1018.6
20260506135022 16 225 4.8 12.9 0.00 0.00 0.00 81 1018.6
20260506134922 16 203 4.8 9.7 0.00 0.00 0.00 82 1018.5
20260506134822 16 203 3.2 9.7 0.00 0.00 0.00 81 1018.5
20260506134722 16 203 8.0 12.9 0.00 0.00 0.00 81 1018.5
20260506134622 16 203 4.8 9.7 0.00 0.00 0.00 81 1018.5
20260506134542 16 180 6.4 9.7 0.00 0.00 0.00 81 1018.5
20260506134422 16 203 6.4 11.3 0.00 0.00 0.00 82 1018.5
20260506134342 16 248 1.6 4.8 0.00 0.00 0.00 82 1018.4
20260506134242 16 180 3.2 4.8 0.00 0.00 0.00 81 1018.4
20260506134122 16 203 4.8 8.0 0.00 0.00 0.00 81 1018.4
20260506134022 16 203 9.7 16.1 0.00 0.00 0.00 82 1018.3
20260506134002 16 180 8.0 12.9 0.00 0.00 0.00 82 1018.4
20260506133822 16 225 4.8 11.3 0.00 0.00 0.00 82 1018.3
20260506133722 16 180 4.8 9.7 0.00 0.00 0.00 82 1018.4
20260506133622 16 203 6.4 11.3 0.00 0.00 0.00 82 1018.3
20260506133522 16 203 6.4 9.7 0.00 0.00 0.00 82 1018.3
20260506133422 16 180 4.8 16.1 0.00 0.00 0.00 83 1018.3
20260506133322 16 225 1.6 3.2 0.00 0.00 0.00 83 1018.3
20260506133222 16 225 4.8 8.0 0.00 0.00 0.00 83 1018.4
20260506133122 16 203 3.2 4.8 0.00 0.00 0.00 83 1018.3
20260506133022 16 270 4.8 12.9 0.00 0.00 0.00 83 1018.3
20260506132922 16 225 3.2 11.3 0.00 0.00 0.00 84 1018.3
20260506132823 16 180 1.6 4.8 0.00 0.00 0.00 83 1018.3
20260506132723 16 203 3.2 4.8 0.00 0.00 0.00 83 1018.2
20260506132622 16 203 1.6 3.2 0.00 0.00 0.00 83 1018.1
20260506132522 16 203 3.2 8.0 0.00 0.00 0.00 82 1018.1
20260506132422 16 203 9.7 17.7 0.00 0.00 0.00 83 1018.1
20260506132322 16 203 4.8 9.7 0.00 0.00 0.00 83 1018.2
20260506132305 16 180 3.2 6.4 0.00 0.00 0.00 83 1018.1
20260506132122 16 180 6.4 14.5 0.00 0.00 0.00 83 1018.1
20260506132023 16 203 4.8 9.7 0.00 0.00 0.00 84 1018.0
20260506131922 16 180 1.6 3.2 0.00 0.00 0.00 84 1018.0
20260506131821 16 315 3.2 8.0 0.00 0.00 0.00 84 1018.0
20260506131722 16 203 1.6 4.8 0.00 0.00 0.00 84 1018.1
20260506131621 16 225 1.6 6.4 0.00 0.00 0.00 84 1018.1
20260506131523 16 180 3.2 8.0 0.00 0.00 0.00 83 1018.1
20260506131422 16 180 3.2 4.8 0.00 0.00 0.00 83 1018.1
20260506131322 16 203 3.2 4.8 0.00 0.00 0.00 83 1018.0
20260506131222 16 180 3.2 8.0 0.00 0.00 0.00 83 1018.1
20260506131122 15 248 3.2 6.4 0.00 0.00 0.00 84 1018.1
20260506131023 15 180 4.8 8.0 0.00 0.00 0.00 84 1018.1
20260506130922 15 225 3.2 6.4 0.00 0.00 0.00 84 1018.3
20260506130822 15 293 1.6 6.4 0.00 0.00 0.00 84 1018.2
20260506130722 15 203 1.6 3.2 0.00 0.00 0.00 84 1018.3
20260506130621 15 203 3.2 4.8 0.00 0.00 0.00 83 1018.2
20260506130542 15 180 3.2 6.4 0.00 0.00 0.00 83 1018.2
20260506130443 15 180 8.0 12.9 0.00 0.00 0.00 83 1018.2
20260506130342 15 203 4.8 9.7 0.00 0.00 0.00 83 1018.2
20260506130222 15 203 1.6 4.8 0.00 0.00 0.00 83 1018.1
20260506130122 15 203 6.4 11.3 0.00 0.00 0.00 83 1018.2
20260506130022 15 180 3.2 9.7 0.00 0.00 0.00 83 1018.2
20260506125942 15 113 1.6 3.2 0.00 0.00 0.00 83 1018.2
20260506125823 15 203 4.8 6.4 0.00 0.00 0.00 83 1018.2
20260506125722 16 203 6.4 8.0 0.00 0.00 0.00 83 1018.2
20260506125623 16 225 4.8 9.7 0.00 0.00 0.00 83 1018.3
20260506125522 16 180 8.0 12.9 0.00 0.00 0.00 83 1018.3
20260506125422 16 180 6.4 12.9 0.00 0.00 0.00 83 1018.3
20260506125322 16 180 4.8 11.3 0.00 0.00 0.00 83 1018.3
20260506125223 16 248 3.2 6.4 0.00 0.00 0.00 83 1018.2
20260506125121 16 203 4.8 9.7 0.00 0.00 0.00 82 1018.3
20260506125022 16 158 6.4 11.3 0.00 0.00 0.00 83 1018.3
20260506124922 16 203 1.6 4.8 0.00 0.00 0.00 83 1018.2
20260506124822 16 158 4.8 6.4 0.00 0.00 0.00 83 1018.3
20260506124722 16 180 4.8 8.0 0.00 0.00 0.00 83 1018.3
20260506124643 16 180 6.4 12.9 0.00 0.00 0.00 83 1018.3
20260506124522 16 203 4.8 9.7 0.00 0.00 0.00 83 1018.3
20260506124423 16 203 3.2 8.0 0.00 0.00 0.00 83 1018.3
20260506124324 16 225 4.8 8.0 0.00 0.00 0.00 83 1018.4
20260506124222 16 203 4.8 8.0 0.00 0.00 0.00 83 1018.4
20260506124124 16 225 6.4 9.7 0.00 0.00 0.00 83 1018.5
20260506124023 16 180 8.0 11.3 0.00 0.00 0.00 83 1018.5
20260506123942 16 180 3.2 6.4 0.00 0.00 0.00 83 1018.5
20260506123822 16 180 3.2 4.8 0.00 0.00 0.00 83 1018.5
20260506123723 16 158 4.8 9.7 0.00 0.00 0.00 83 1018.5
20260506123702 16 158 9.7 14.5 0.00 0.00 0.00 83 1018.5
20260506123522 16 135 6.4 9.7 0.00 0.00 0.00 83 1018.6
20260506123442 16 225 4.8 9.7 0.00 0.00 0.00 83 1018.6
20260506123322 16 203 8.0 11.3 0.00 0.00 0.00 83 1018.7
20260506123221 16 225 6.4 12.9 0.00 0.00 0.00 82 1018.7
20260506123122 16 203 8.0 14.5 0.00 0.00 0.00 83 1018.7
20260506123042 16 158 4.8 8.0 0.00 0.00 0.00 84 1018.8
20260506122822 16 180 4.8 9.7 0.00 0.00 0.00 84 1018.8
20260506122804 16 203 4.8 9.7 0.00 0.00 0.00 84 1018.8
20260506122623 16 203 1.6 6.4 0.00 0.00 0.00 85 1018.8
20260506122523 16 225 3.2 6.4 0.00 0.00 0.00 84 1018.8
20260506122422 16 158 4.8 8.0 0.00 0.00 0.00 84 1018.8
20260506122343 16 158 6.4 9.7 0.00 0.00 0.00 84 1018.8
20260506122222 16 158 3.2 8.0 0.00 0.00 0.00 84 1018.9
20260506122122 16 203 4.8 8.0 0.00 0.00 0.00 84 1018.9
20260506122042 16 180 1.6 4.8 0.00 0.00 0.00 85 1018.9
20260506121922 16 180 1.6 4.8 0.00 0.00 0.00 85 1018.9
20260506121822 16 248 6.4 12.9 0.00 0.00 0.00 85 1018.9
20260506121742 15 203 3.2 8.0 0.00 0.00 0.00 84 1018.8
20260506121622 15 203 3.2 4.8 0.00 0.00 0.00 84 1018.9
20260506121523 15 180 6.4 12.9 0.00 0.00 0.00 84 1018.8
20260506121443 15 203 6.4 12.9 0.00 0.00 0.00 84 1018.8
20260506121323 15 225 3.2 6.4 0.00 0.00 0.00 84 1018.8
20260506121224 15 225 3.2 8.0 0.00 0.00 0.00 85 1018.8
20260506121121 15 180 3.2 6.4 0.00 0.00 0.00 85 1018.8
20260506121023 15 180 3.2 6.4 0.00 0.00 0.00 85 1018.8
20260506120921 15 180 4.8 8.0 0.00 0.00 0.00 85 1018.8
20260506120821 15 180 6.4 11.3 0.00 0.00 0.00 85 1018.9
20260506120722 15 180 6.4 8.0 0.00 0.00 0.00 85 1018.8
20260506120622 15 203 1.6 6.4 0.00 0.00 0.00 85 1018.8
20260506120522 15 203 3.2 6.4 0.00 0.00 0.00 85 1018.8
20260506120422 15 158 4.8 8.0 0.00 0.00 0.00 85 1018.8
20260506120321 15 203 3.2 12.9 0.00 0.00 0.00 84 1018.7
20260506120222 15 203 8.0 14.5 0.00 0.00 0.00 85 1018.7
20260506120122 15 203 6.4 9.7 0.00 0.00 0.00 85 1018.7
20260506120022 15 225 3.2 4.8 0.00 0.00 0.00 85 1018.6
20260506115941 15 270 3.2 6.4 0.00 0.00 0.00 85 1018.7
20260506115822 15 180 6.4 11.3 0.00 0.00 0.00 85 1018.7
20260506115722 15 225 4.8 6.4 0.00 0.00 0.00 85 1018.6
20260506115621 15 158 4.8 8.0 0.00 0.00 0.00 86 1018.6
20260506115521 15 158 6.4 11.3 0.00 0.00 0.00 85 1018.6
20260506115421 15 180 6.4 11.3 0.00 0.00 0.00 86 1018.6
20260506115322 15 248 3.2 8.0 0.00 0.00 0.00 86 1018.7
20260506115242 15 248 1.6 6.4 0.00 0.00 0.00 86 1018.6
20260506115142 15 158 6.4 12.9 0.00 0.00 0.00 86 1018.7
20260506115022 15 225 3.2 6.4 0.00 0.00 0.00 87 1018.7
20260506114922 15 180 3.2 8.0 0.00 0.00 0.00 87 1018.6
20260506114822 15 180 3.2 6.4 0.00 0.00 0.00 87 1018.7
20260506114721 15 203 6.4 9.7 0.00 0.00 0.00 87 1018.6
20260506114642 15 203 4.8 9.7 0.00 0.00 0.00 87 1018.6
20260506114521 15 203 1.6 3.2 0.00 0.00 0.00 87 1018.6
20260506114421 15 225 3.2 6.4 0.00 0.00 0.00 87 1018.6
20260506114322 15 203 8.0 11.3 0.00 0.00 0.00 87 1018.5
20260506114302 15 180 3.2 6.4 0.00 0.00 0.00 88 1018.6
20260506114121 15 180 1.6 4.8 0.00 0.00 0.00 88 1018.6
20260506114022 14 180 1.6 3.2 0.00 0.00 0.00 88 1018.6
20260506113922 14 158 1.6 6.4 0.00 0.00 0.00 88 1018.5
20260506113822 14 158 1.6 3.2 0.00 0.00 0.00 88 1018.6
20260506113721 14 135 1.6 3.2 0.00 0.00 0.00 88 1018.5
20260506113622 14 135 3.2 6.4 0.00 0.00 0.00 88 1018.5
20260506113522 14 203 4.8 8.0 0.00 0.00 0.00 88 1018.5
20260506113421 14 180 4.8 6.4 0.00 0.00 0.00 88 1018.5
20260506113342 14 203 3.2 8.0 0.00 0.00 0.00 88 1018.6
20260506113222 14 203 6.4 11.3 0.00 0.00 0.00 88 1018.6
20260506113142 14 158 1.6 3.2 0.00 0.00 0.00 88 1018.6
20260506113042 14 225 3.2 6.4 0.00 0.00 0.00 88 1018.7
20260506112921 14 225 1.6 4.8 0.00 0.00 0.00 88 1018.6
20260506112821 14 203 3.2 6.4 0.00 0.00 0.00 88 1018.7
20260506112722 14 270 4.8 11.3 0.00 0.00 0.00 88 1018.7
20260506112621 14 158 3.2 8.0 0.00 0.00 0.00 88 1018.7
20260506112523 14 180 1.6 4.8 0.00 0.00 0.00 88 1018.7
20260506112442 14 203 3.2 4.8 0.00 0.00 0.00 88 1018.6
20260506112321 14 90 3.2 4.8 0.00 0.00 0.00 88 1018.7
20260506112223 14 0.0 3.2 0.00 0.00 0.00 88 1018.7
20260506112122 14 203 4.8 12.9 0.00 0.00 0.00 88 1018.7
20260506112022 14 225 4.8 9.7 0.00 0.00 0.00 88 1018.7
20260506111922 14 158 4.8 6.4 0.00 0.00 0.00 88 1018.7
20260506111823 14 203 4.8 8.0 0.00 0.00 0.00 88 1018.8
20260506111802 14 225 1.6 11.3 0.00 0.00 0.00 88 1018.8
20260506111622 14 225 1.6 4.8 0.00 0.00 0.00 88 1018.7
20260506111522 14 203 3.2 4.8 0.00 0.00 0.00 88 1018.8
20260506111421 14 203 8.0 12.9 0.00 0.00 0.00 88 1018.8
20260506111322 14 180 1.6 4.8 0.00 0.00 0.00 88 1018.7
20260506111222 14 225 1.6 1.6 0.00 0.00 0.00 88 1018.7
20260506111141 14 225 6.4 14.5 0.00 0.00 0.00 88 1018.7
20260506111021 14 225 1.6 3.2 0.00 0.00 0.00 88 1018.7
20260506110921 14 158 4.8 9.7 0.00 0.00 0.00 88 1018.6
20260506110821 14 180 4.8 14.5 0.00 0.00 0.00 88 1018.6
20260506110722 14 158 1.6 3.2 0.00 0.00 0.00 88 1018.6
20260506110622 14 158 4.8 11.3 0.00 0.00 0.00 88 1018.7
20260506110521 14 225 4.8 8.0 0.00 0.00 0.00 88 1018.7
20260506110422 14 203 6.4 11.3 0.00 0.00 0.00 88 1018.7
20260506110323 14 203 4.8 8.0 0.00 0.00 0.00 89 1018.7
20260506110221 14 203 3.2 9.7 0.00 0.00 0.00 89 1018.8
20260506110122 14 203 4.8 8.0 0.00 0.00 0.00 89 1018.8
20260506110042 14 225 3.2 8.0 0.00 0.00 0.00 89 1018.8
20260506105924 14 180 1.6 6.4 0.00 0.00 0.00 89 1018.8
20260506105824 13 180 8.0 16.1 0.00 0.00 0.00 89 1018.8
20260506105722 13 248 3.2 6.4 0.00 0.00 0.00 89 1018.8
20260506105644 13 225 3.2 6.4 0.00 0.00 0.00 89 1018.8
20260506105522 13 248 1.6 3.2 0.00 0.00 0.00 89 1018.7
20260506105422 13 180 3.2 6.4 0.00 0.00 0.00 90 1018.7
20260506105322 13 270 1.6 6.4 0.00 0.00 0.00 90 1018.7
20260506105222 13 225 3.2 4.8 0.00 0.00 0.00 90 1018.6
20260506105121 13 248 3.2 8.0 0.00 0.00 0.00 90 1018.7
20260506105022 13 248 1.6 4.8 0.00 0.00 0.00 90 1018.6
20260506104921 13 225 3.2 6.4 0.00 0.00 0.00 90 1018.6
20260506104821 13 203 3.2 6.4 0.00 0.00 0.00 90 1018.7
20260506104722 13 0.0 3.2 0.00 0.00 0.00 90 1018.6
20260506104621 13 0.0 0.0 0.00 0.00 0.00 90 1018.5
20260506104521 13 270 1.6 4.8 0.00 0.00 0.00 90 1018.6
20260506104422 13 248 3.2 9.7 0.00 0.00 0.00 90 1018.6
20260506104323 13 225 3.2 6.4 0.00 0.00 0.00 90 1018.5
20260506104222 13 225 4.8 11.3 0.00 0.00 0.00 90 1018.6
20260506104122 13 0.0 1.6 0.00 0.00 0.00 91 1018.5
20260506104023 13 225 1.6 4.8 0.00 0.00 0.00 91 1018.5
20260506103921 13 225 3.2 6.4 0.00 0.00 0.00 90 1018.5
20260506103821 13 225 4.8 9.7 0.00 0.00 0.00 91 1018.6
20260506103723 13 203 4.8 8.0 0.00 0.00 0.00 91 1018.6
20260506103622 13 225 4.8 8.0 0.00 0.00 0.00 91 1018.6
20260506103542 13 203 3.2 4.8 0.00 0.00 0.00 91 1018.6
20260506103422 13 203 3.2 6.4 0.00 0.00 0.00 91 1018.7
20260506103321 13 180 3.2 6.4 0.00 0.00 0.00 91 1018.7
20260506103221 13 180 1.6 6.4 0.00 0.00 0.00 91 1018.7
20260506103141 13 0.0 1.6 0.00 0.00 0.00 91 1018.7
20260506103021 13 0.0 1.6 0.00 0.00 0.00 91 1018.7
20260506102921 13 0.0 1.6 0.00 0.00 0.00 91 1018.7
20260506102822 13 180 3.2 4.8 0.00 0.00 0.00 91 1018.7
20260506102723 13 270 1.6 3.2 0.00 0.00 0.00 91 1018.7
20260506102623 13 203 1.6 4.8 0.00 0.00 0.00 91 1018.7
20260506102522 13 203 3.2 6.4 0.00 0.00 0.00 91 1018.7
20260506102424 13 0.0 1.6 0.00 0.00 0.00 91 1018.7
20260506102321 13 203 1.6 4.8 0.00 0.00 0.00 91 1018.7
20260506102221 13 203 1.6 4.8 0.00 0.00 0.00 91 1018.7
20260506102122 13 0.0 0.0 0.00 0.00 0.00 91 1018.7
20260506102021 13 0.0 1.6 0.00 0.00 0.00 91 1018.7
20260506101921 13 225 1.6 3.2 0.00 0.00 0.00 91 1018.7
20260506101821 13 203 1.6 3.2 0.00 0.00 0.00 91 1018.7
20260506101721 13 203 1.6 4.8 0.00 0.00 0.00 91 1018.6
20260506101621 13 203 3.2 4.8 0.00 0.00 0.00 91 1018.7
20260506101521 13 225 1.6 4.8 0.00 0.00 0.00 91 1018.6
20260506101422 13 0.0 3.2 0.00 0.00 0.00 91 1018.6
20260506101323 13 158 4.8 8.0 0.00 0.00 0.00 91 1018.6
20260506101222 13 0.0 3.2 0.00 0.00 0.00 91 1018.6
20260506101121 13 203 3.2 6.4 0.00 0.00 0.00 91 1018.6
20260506101022 13 203 1.6 6.4 0.00 0.00 0.00 90 1018.6
20260506100921 13 0.0 3.2 0.00 0.00 0.00 91 1018.6
20260506100821 13 203 1.6 3.2 0.00 0.00 0.00 91 1018.6
20260506100743 13 203 3.2 6.4 0.00 0.00 0.00 91 1018.6
20260506100621 13 203 1.6 3.2 0.00 0.00 0.00 91 1018.6
20260506100522 13 203 4.8 8.0 0.00 0.00 0.00 91 1018.6
20260506100423 13 248 4.8 6.4 0.00 0.00 0.00 91 1018.6
20260506100322 13 225 4.8 9.7 0.00 0.00 0.00 90 1018.5
20260506100221 13 225 1.6 3.2 0.00 0.00 0.00 90 1018.6
20260506100122 13 0.0 1.6 0.00 0.00 0.00 90 1018.5
20260506100021 13 0.0 1.6 0.00 0.00 0.00 90 1018.5
20260506095921 13 0.0 3.2 0.00 0.00 0.00 90 1018.5
20260506095822 13 225 1.6 3.2 0.00 0.00 0.00 91 1018.5
20260506095741 13 225 1.6 3.2 0.00 0.00 0.00 91 1018.6
20260506095621 13 225 3.2 4.8 0.00 0.00 0.00 91 1018.6
20260506095521 13 180 3.2 4.8 0.00 0.00 0.00 90 1018.6
20260506095421 13 203 1.6 1.6 0.00 0.00 0.00 91 1018.5
20260506095322 13 203 1.6 3.2 0.00 0.00 0.00 91 1018.5
20260506095221 13 203 1.6 4.8 0.00 0.00 0.00 91 1018.5
20260506095122 13 225 1.6 3.2 0.00 0.00 0.00 91 1018.5
20260506095021 13 225 1.6 3.2 0.00 0.00 0.00 91 1018.5
20260506094921 12 225 1.6 3.2 0.00 0.00 0.00 91 1018.5
20260506094821 12 203 3.2 6.4 0.00 0.00 0.00 90 1018.5
20260506094721 12 0.0 1.6 0.00 0.00 0.00 90 1018.5
20260506094621 12 203 1.6 3.2 0.00 0.00 0.00 90 1018.5
20260506094521 12 203 3.2 6.4 0.00 0.00 0.00 90 1018.5
20260506094421 12 180 3.2 6.4 0.00 0.00 0.00 90 1018.5
20260506094321 12 0.0 1.6 0.00 0.00 0.00 90 1018.4
20260506094222 12 0.0 0.0 0.00 0.00 0.00 90 1018.5
20260506094141 12 0.0 0.0 0.00 0.00 0.00 90 1018.4
20260506094041 13 0.0 1.6 0.00 0.00 0.00 90 1018.4
20260506093921 13 180 1.6 3.2 0.00 0.00 0.00 90 1018.4
20260506093821 13 180 1.6 3.2 0.00 0.00 0.00 90 1018.4
20260506093721 13 180 1.6 3.2 0.00 0.00 0.00 90 1018.4
20260506093621 13 180 1.6 3.2 0.00 0.00 0.00 90 1018.4
20260506093541 13 0.0 1.6 0.00 0.00 0.00 90 1018.4
20260506093421 13 180 1.6 4.8 0.00 0.00 0.00 90 1018.4
20260506093321 13 180 3.2 6.4 0.00 0.00 0.00 90 1018.3
20260506093221 13 0.0 1.6 0.00 0.00 0.00 90 1018.3
20260506093121 13 0.0 1.6 0.00 0.00 0.00 90 1018.3
20260506093023 13 180 3.2 4.8 0.00 0.00 0.00 90 1018.4
20260506092942 13 180 1.6 3.2 0.00 0.00 0.00 90 1018.4
20260506092841 13 180 3.2 6.4 0.00 0.00 0.00 90 1018.4
20260506092721 13 225 1.6 4.8 0.00 0.00 0.00 90 1018.5
20260506092621 13 248 1.6 3.2 0.00 0.00 0.00 90 1018.5
20260506092521 13 248 1.6 1.6 0.00 0.00 0.00 89 1018.5
20260506092421 13 248 1.6 3.2 0.00 0.00 0.00 89 1018.6
20260506092321 13 225 1.6 3.2 0.00 0.00 0.00 89 1018.6
20260506092221 13 225 1.6 3.2 0.00 0.00 0.00 89 1018.5
20260506092141 13 248 1.6 3.2 0.00 0.00 0.00 90 1018.6
20260506092102 13 225 1.6 3.2 0.00 0.00 0.00 90 1018.6
20260506091922 13 225 3.2 4.8 0.00 0.00 0.00 90 1018.6
20260506091821 13 225 3.2 4.8 0.00 0.00 0.00 89 1018.6
20260506091721 13 225 1.6 3.2 0.00 0.00 0.00 89 1018.7
20260506091623 13 225 3.2 4.8 0.00 0.00 0.00 89 1018.7
20260506091522 13 270 3.2 4.8 0.00 0.00 0.00 89 1018.7
20260506091423 13 270 1.6 3.2 0.00 0.00 0.00 89 1018.7
20260506091323 13 248 1.6 4.8 0.00 0.00 0.00 89 1018.6
20260506091242 13 0.0 1.6 0.00 0.00 0.00 89 1018.6
20260506091124 13 0.0 0.0 0.00 0.00 0.00 89 1018.6
20260506091021 13 0.0 0.0 0.00 0.00 0.00 89 1018.6
20260506090922 13 0.0 1.6 0.00 0.00 0.00 89 1018.6
20260506090822 13 0.0 1.6 0.00 0.00 0.00 89 1018.6
20260506090722 13 0.0 0.0 0.00 0.00 0.00 89 1018.6
20260506090621 13 0.0 0.0 0.00 0.00 0.00 89 1018.6
20260506090521 13 225 1.6 6.4 0.00 0.00 0.00 89 1018.7
20260506090421 13 180 1.6 3.2 0.00 0.00 0.00 89 1018.6
20260506090321 13 0.0 3.2 0.00 0.00 0.00 89 1018.7
20260506090221 13 180 1.6 3.2 0.00 0.00 0.00 89 1018.6
20260506090121 13 180 3.2 8.0 0.00 0.00 0.00 89 1018.7
20260506090103 13 225 1.6 3.2 0.00 0.00 0.00 89 1018.7
20260506085821 13 203 3.2 4.8 0.00 0.00 0.00 89 1018.7
20260506085721 13 203 1.6 6.4 0.00 0.00 0.00 89 1018.7
20260506085623 13 225 1.6 4.8 0.00 0.00 0.00 89 1018.7
20260506085521 13 225 4.8 8.0 0.00 0.00 0.00 89 1018.7
20260506085421 13 135 4.8 6.4 0.00 0.00 0.00 89 1018.7
20260506085321 13 203 3.2 4.8 0.00 0.00 0.00 89 1018.7
20260506085242 13 203 1.6 3.2 0.00 0.00 0.00 89 1018.7
20260506085121 13 203 1.6 3.2 0.00 0.00 0.00 89 1018.7
20260506085021 13 203 1.6 3.2 0.00 0.00 0.00 89 1018.7
20260506084922 13 203 1.6 4.8 0.00 0.00 0.00 89 1018.8
20260506084821 13 180 6.4 12.9 0.00 0.00 0.00 89 1018.8
20260506084721 13 203 1.6 6.4 0.00 0.00 0.00 89 1018.7
20260506084621 13 203 1.6 4.8 0.00 0.00 0.00 89 1018.8
20260506084522 13 0.0 3.2 0.00 0.00 0.00 89 1018.8
20260506084421 13 203 3.2 6.4 0.00 0.00 0.00 89 1018.8
20260506084321 13 203 3.2 4.8 0.00 0.00 0.00 89 1018.9
20260506084221 13 203 4.8 6.4 0.00 0.00 0.00 89 1018.8
20260506084121 13 0.0 1.6 0.00 0.00 0.00 89 1018.9
20260506084022 13 0.0 1.6 0.00 0.00 0.00 89 1018.9
20260506083941 13 203 3.2 4.8 0.00 0.00 0.00 89 1018.9
20260506083823 13 203 1.6 6.4 0.00 0.00 0.00 89 1018.9
20260506083721 13 135 1.6 3.2 0.00 0.00 0.00 89 1018.8
20260506083621 13 135 1.6 4.8 0.00 0.00 0.00 88 1018.8
20260506083602 13 203 3.2 6.4 0.00 0.00 0.00 88 1018.8
20260506083421 13 203 1.6 3.2 0.00 0.00 0.00 88 1018.9
20260506083321 13 0.0 0.0 0.00 0.00 0.00 88 1018.8
20260506083222 13 203 1.6 1.6 0.00 0.00 0.00 88 1018.9
20260506083142 13 203 3.2 4.8 0.00 0.00 0.00 88 1018.8
20260506083041 13 158 3.2 6.4 0.00 0.00 0.00 88 1018.8
20260506082923 13 158 1.6 6.4 0.00 0.00 0.00 88 1018.8
20260506082821 13 0.0 0.0 0.00 0.00 0.00 88 1018.8
20260506082721 13 0.0 4.8 0.00 0.00 0.00 88 1018.8
20260506082621 13 203 1.6 4.8 0.00 0.00 0.00 88 1018.8
20260506082521 13 203 1.6 4.8 0.00 0.00 0.00 88 1018.9
20260506082421 13 0.0 3.2 0.00 0.00 0.00 88 1018.9
20260506082321 13 203 1.6 3.2 0.00 0.00 0.00 88 1018.9
20260506082242 13 225 3.2 12.9 0.00 0.00 0.00 88 1018.9
20260506082122 13 225 3.2 4.8 0.00 0.00 0.00 88 1019.0
20260506082021 13 203 3.2 4.8 0.00 0.00 0.00 88 1018.9
20260506081921 13 180 3.2 4.8 0.00 0.00 0.00 88 1018.9
20260506081821 13 203 3.2 6.4 0.00 0.00 0.00 88 1018.8
20260506081721 13 203 1.6 1.6 0.00 0.00 0.00 88 1018.8
20260506081643 13 0.0 1.6 0.00 0.00 0.00 88 1018.8
20260506081541 13 203 1.6 1.6 0.00 0.00 0.00 88 1018.8
20260506081421 13 203 1.6 4.8 0.00 0.00 0.00 88 1018.8
20260506081321 13 203 3.2 8.0 0.00 0.00 0.00 88 1018.7
20260506081221 13 225 3.2 4.8 0.00 0.00 0.00 88 1018.8
20260506081121 13 225 4.8 11.3 0.00 0.00 0.00 88 1018.8
20260506081041 13 203 4.8 9.7 0.00 0.00 0.00 88 1018.8
20260506080921 13 225 3.2 8.0 0.00 0.00 0.00 88 1018.9
20260506080821 13 248 3.2 6.4 0.00 0.00 0.00 88 1018.8
20260506080721 13 203 4.8 8.0 0.00 0.00 0.00 88 1018.8
20260506080621 13 203 4.8 8.0 0.00 0.00 0.00 88 1018.7
20260506080522 13 180 3.2 9.7 0.00 0.00 0.00 88 1018.8
20260506080421 13 225 3.2 3.2 0.00 0.00 0.00 88 1018.7
20260506080321 13 203 3.2 4.8 0.00 0.00 0.00 88 1018.8
20260506080221 13 248 3.2 8.0 0.00 0.00 0.00 88 1018.8
20260506080122 13 225 3.2 9.7 0.00 0.00 0.00 87 1018.8
20260506073521 13 180 4.8 9.7 0.00 0.00 0.00 87 1019.0
20260506073421 13 180 3.2 4.8 0.00 0.00 0.00 87 1019.1
20260506073322 13 225 1.6 4.8 0.00 0.00 0.00 87 1019.1
20260506073222 13 0.0 1.6 0.00 0.00 0.00 87 1019.0
20260506073121 13 0.0 1.6 0.00 0.00 0.00 87 1019.0
20260506073022 13 225 1.6 4.8 0.00 0.00 0.00 87 1019.1
20260506072925 13 225 3.2 4.8 0.00 0.00 0.00 87 1019.0
20260506072822 13 225 1.6 3.2 0.00 0.00 0.00 87 1019.0
20260506072741 13 225 1.6 6.4 0.00 0.00 0.00 87 1019.0
20260506072622 13 203 1.6 3.2 0.00 0.00 0.00 87 1018.9
20260506072522 13 203 3.2 6.4 0.00 0.00 0.00 87 1018.9
20260506072421 13 225 4.8 11.3 0.00 0.00 0.00 87 1018.9
20260506072321 13 203 3.2 6.4 0.00 0.00 0.00 87 1019.0
20260506072223 13 203 3.2 8.0 0.00 0.00 0.00 87 1019.0
20260506072124 13 113 3.2 6.4 0.00 0.00 0.00 87 1018.9
20260506072021 13 203 4.8 8.0 0.00 0.00 0.00 86 1018.9
20260506071921 13 225 1.6 6.4 0.00 0.00 0.00 86 1019.0
20260506071821 13 0.0 1.6 0.00 0.00 0.00 86 1019.0
20260506071721 13 0.0 3.2 0.00 0.00 0.00 86 1019.0
20260506071621 13 0.0 0.0 0.00 0.00 0.00 86 1018.9
20260506071521 13 0.0 1.6 0.00 0.00 0.00 86 1019.0
20260506071423 13 203 3.2 6.4 0.00 0.00 0.00 86 1019.0
20260506071321 13 203 4.8 8.0 0.00 0.00 0.00 86 1019.0
20260506071301 13 203 1.6 4.8 0.00 0.00 0.00 86 1018.9
20260506071121 13 203 1.6 3.2 0.00 0.00 0.00 86 1019.0
20260506071041 13 203 3.2 4.8 0.00 0.00 0.00 86 1019.0
20260506070921 13 203 3.2 6.4 0.00 0.00 0.00 86 1019.0
20260506070821 13 203 1.6 3.2 0.00 0.00 0.00 86 1019.0
20260506070721 13 203 3.2 6.4 0.00 0.00 0.00 86 1018.9
20260506070641 13 203 1.6 6.4 0.00 0.00 0.00 85 1019.0
20260506070522 13 0.0 3.2 0.00 0.00 0.00 85 1019.0
20260506070420 13 203 1.6 4.8 0.00 0.00 0.00 85 1019.0
20260506070320 13 203 3.2 6.4 0.00 0.00 0.00 85 1019.0
20260506070222 13 203 1.6 4.8 0.00 0.00 0.00 85 1019.0
20260506070121 13 203 1.6 3.2 0.00 0.00 0.00 85 1019.0
20260506062441 14 180 4.8 11.3 0.00 0.00 0.00 84 1019.0
20260506062321 14 203 6.4 14.5 0.00 0.00 0.00 83 1019.0
20260506062221 14 203 1.6 4.8 0.00 0.00 0.00 83 1019.0
20260506062121 14 203 1.6 4.8 0.00 0.00 0.00 83 1018.9
20260506062041 14 0.0 1.6 0.00 0.00 0.00 83 1018.9
20260506061920 14 203 1.6 4.8 0.00 0.00 0.00 83 1019.0
20260506061822 14 203 1.6 4.8 0.00 0.00 0.00 83 1019.0
20260506061721 14 203 4.8 8.0 0.00 0.00 0.00 83 1018.9
20260506061621 14 225 3.2 6.4 0.00 0.00 0.00 83 1019.0
20260506061602 14 225 4.8 11.3 0.00 0.00 0.00 83 1019.0
20260506061421 14 225 3.2 6.4 0.00 0.00 0.00 83 1019.0
20260506061321 14 180 4.8 8.0 0.00 0.00 0.00 83 1019.0
20260506061221 14 203 4.8 6.4 0.00 0.00 0.00 83 1019.0
20260506061121 14 180 1.6 3.2 0.00 0.00 0.00 83 1019.0
20260506061101 14 180 6.4 9.7 0.00 0.00 0.00 83 1019.0
20260506060921 15 180 3.2 8.0 0.00 0.00 0.00 83 1019.0
20260506060822 15 180 3.2 9.7 0.00 0.00 0.00 83 1019.0
20260506060721 15 203 8.0 14.5 0.00 0.00 0.00 82 1019.0
20260506060621 15 203 4.8 9.7 0.00 0.00 0.00 82 1019.0
20260506060521 15 225 6.4 14.5 0.00 0.00 0.00 83 1019.0
20260506060421 15 180 4.8 8.0 0.00 0.00 0.00 82 1018.9
20260506060321 15 203 4.8 8.0 0.00 0.00 0.00 82 1019.0
20260506060220 15 203 4.8 8.0 0.00 0.00 0.00 82 1019.0
20260506060121 15 203 4.8 9.7 0.00 0.00 0.00 82 1018.9
20260506051321 15 225 3.2 6.4 0.00 0.00 0.00 80 1019.1
20260506051241 15 180 3.2 4.8 0.00 0.00 0.00 80 1019.0
20260506051121 15 203 4.8 11.3 0.00 0.00 0.00 80 1019.1
20260506051020 15 180 4.8 11.3 0.00 0.00 0.00 80 1019.0
20260506050920 15 180 4.8 12.9 0.00 0.00 0.00 80 1019.1
20260506050820 15 203 6.4 11.3 0.00 0.00 0.00 80 1019.1
20260506050721 15 180 3.2 9.7 0.00 0.00 0.00 80 1019.1
20260506050622 15 180 4.8 9.7 0.00 0.00 0.00 80 1019.1
20260506050542 15 203 3.2 16.1 0.00 0.00 0.00 80 1019.2
20260506050424 15 203 6.4 16.1 0.00 0.00 0.00 80 1019.3
20260506050322 15 180 1.6 4.8 0.00 0.00 0.00 80 1019.2
20260506050221 15 180 1.6 3.2 0.00 0.00 0.00 80 1019.2
20260506050201 15 0.0 1.6 0.00 0.00 0.00 80 1019.3
20260506045123 15 248 1.6 4.8 0.00 0.00 0.00 79 1019.2
20260506045023 15 203 1.6 4.8 0.00 0.00 0.00 79 1019.3
20260506044921 15 0.0 3.2 0.00 0.00 0.00 79 1019.2
20260506044841 15 0.0 3.2 0.00 0.00 0.00 79 1019.2
20260506044722 15 0.0 1.6 0.00 0.00 0.00 79 1019.2
20260506044622 15 0.0 3.2 0.00 0.00 0.00 79 1019.2
20260506044521 16 203 1.6 4.8 0.00 0.00 0.00 79 1019.1
20260506044440 16 225 1.6 3.2 0.00 0.00 0.00 79 1019.1
20260506044341 16 225 3.2 4.8 0.00 0.00 0.00 79 1019.1
20260506044241 16 203 3.2 6.4 0.00 0.00 0.00 79 1019.2
20260506044121 16 225 1.6 3.2 0.00 0.00 0.00 79 1019.2
20260506044101 16 225 3.2 6.4 0.00 0.00 0.00 78 1019.2
20260506043922 16 203 3.2 6.4 0.00 0.00 0.00 78 1019.3
20260506043822 16 180 3.2 4.8 0.00 0.00 0.00 78 1019.2
20260506043743 16 225 4.8 6.4 0.00 0.00 0.00 78 1019.3
20260506043622 16 180 3.2 6.4 0.00 0.00 0.00 78 1019.3
20260506043542 16 180 1.6 4.8 0.00 0.00 0.00 78 1019.3
20260506043424 16 180 1.6 4.8 0.00 0.00 0.00 78 1019.3
20260506043320 16 180 1.6 1.6 0.00 0.00 0.00 78 1019.3
20260506043220 16 180 1.6 3.2 0.00 0.00 0.00 78 1019.3
20260506043120 16 180 1.6 3.2 0.00 0.00 0.00 78 1019.3
20260506043041 16 180 3.2 6.4 0.00 0.00 0.00 78 1019.3
20260506042920 16 180 1.6 3.2 0.00 0.00 0.00 78 1019.3
20260506042823 16 180 3.2 6.4 0.00 0.00 0.00 78 1019.3
20260506042742 16 203 1.6 4.8 0.00 0.00 0.00 78 1019.3
20260506042622 16 203 3.2 6.4 0.00 0.00 0.00 78 1019.3
20260506042522 16 180 1.6 4.8 0.00 0.00 0.00 78 1019.3
20260506042422 16 180 4.8 8.0 0.00 0.00 0.00 78 1019.3
20260506042343 16 225 3.2 8.0 0.00 0.00 0.00 78 1019.3
20260506042221 16 248 1.6 6.4 0.00 0.00 0.00 77 1019.3
20260506042120 16 248 1.6 3.2 0.00 0.00 0.00 77 1019.3
20260506042021 16 203 3.2 6.4 0.00 0.00 0.00 77 1019.3
20260506041920 16 0.0 1.6 0.00 0.00 0.00 77 1019.3
20260506041820 16 0.0 1.6 0.00 0.00 0.00 77 1019.3
20260506041743 16 203 4.8 8.0 0.00 0.00 0.00 77 1019.3
20260506041629 16 203 3.2 12.9 0.00 0.00 0.00 77 1019.3
20260506041522 16 203 3.2 8.0 0.00 0.00 0.00 77 1019.3
20260506041422 16 203 4.8 14.5 0.00 0.00 0.00 77 1019.3
20260506041324 16 203 1.6 3.2 0.00 0.00 0.00 77 1019.3
20260506041244 16 203 1.6 3.2 0.00 0.00 0.00 77 1019.3
20260506041121 16 225 6.4 9.7 0.00 0.00 0.00 77 1019.3
20260506041021 16 203 1.6 6.4 0.00 0.00 0.00 77 1019.3
20260506040921 16 203 1.6 6.4 0.00 0.00 0.00 77 1019.3
20260506040820 16 180 6.4 8.0 0.00 0.00 0.00 77 1019.3
20260506040741 16 248 4.8 6.4 0.00 0.00 0.00 77 1019.3
20260506040622 16 203 6.4 9.7 0.00 0.00 0.00 77 1019.3
20260506040522 16 0.0 4.8 0.00 0.00 0.00 77 1019.4
20260506040422 16 0.0 3.2 0.00 0.00 0.00 77 1019.3
20260506040322 16 158 3.2 4.8 0.00 0.00 0.00 77 1019.3
20260506040222 16 180 4.8 11.3 0.00 0.00 0.00 77 1019.3
20260506040122 16 270 4.8 11.3 0.00 0.00 0.00 77 1019.3
20260506040021 16 203 4.8 12.9 0.00 0.00 0.00 77 1019.4
20260506035922 16 270 4.8 9.7 0.00 0.00 0.00 77 1019.3
20260506035843 16 158 3.2 8.0 0.00 0.00 0.00 77 1019.3
20260506035723 16 158 1.6 6.4 0.00 0.00 0.00 77 1019.3
20260506035622 16 158 3.2 6.4 0.00 0.00 0.00 77 1019.3
20260506035525 16 158 3.2 8.0 0.00 0.00 0.00 77 1019.4
20260506035423 16 203 3.2 9.7 0.00 0.00 0.00 76 1019.4
20260506035322 16 203 3.2 4.8 0.00 0.00 0.00 76 1019.3
20260506035222 16 248 3.2 6.4 0.00 0.00 0.00 76 1019.4
20260506035123 16 203 4.8 8.0 0.00 0.00 0.00 76 1019.3
20260506035022 16 225 4.8 6.4 0.00 0.00 0.00 76 1019.3
20260506034922 16 203 4.8 12.9 0.00 0.00 0.00 76 1019.3
20260506034822 16 203 3.2 11.3 0.00 0.00 0.00 76 1019.3
20260506034722 16 158 8.0 12.9 0.00 0.00 0.00 76 1019.2
20260506034622 16 270 3.2 9.7 0.00 0.00 0.00 76 1019.2
20260506034522 16 203 3.2 4.8 0.00 0.00 0.00 76 1019.3
20260506034424 16 203 3.2 4.8 0.00 0.00 0.00 76 1019.3
20260506034341 16 158 3.2 6.4 0.00 0.00 0.00 76 1019.3
20260506034321 16 225 3.2 6.4 0.00 0.00 0.00 76 1019.3
20260506034121 16 180 3.2 4.8 0.00 0.00 0.00 76 1019.1
20260506034020 16 180 1.6 3.2 0.00 0.00 0.00 76 1019.3
20260506033923 16 0.0 1.6 0.00 0.00 0.00 76 1019.2
20260506033822 16 158 1.6 3.2 0.00 0.00 0.00 76 1019.2
20260506033742 16 0.0 1.6 0.00 0.00 0.00 76 1019.3
20260506033622 16 158 1.6 3.2 0.00 0.00 0.00 76 1019.2
20260506033522 16 225 9.7 17.7 0.00 0.00 0.00 76 1019.2
20260506033442 16 225 6.4 11.3 0.00 0.00 0.00 76 1019.2
20260506033322 16 203 4.8 14.5 0.00 0.00 0.00 76 1019.2
20260506033223 16 203 1.6 4.8 0.00 0.00 0.00 76 1019.2
20260506033120 16 225 1.6 3.2 0.00 0.00 0.00 76 1019.2
20260506033020 16 225 3.2 9.7 0.00 0.00 0.00 76 1019.2
20260506032921 16 203 3.2 6.4 0.00 0.00 0.00 76 1019.2
20260506032842 16 0.0 1.6 0.00 0.00 0.00 76 1019.2
20260506032722 16 248 3.2 4.8 0.00 0.00 0.00 76 1019.2
20260506032622 16 203 3.2 6.4 0.00 0.00 0.00 76 1019.2
20260506032522 16 158 4.8 8.0 0.00 0.00 0.00 76 1019.1
20260506032422 16 225 4.8 9.7 0.00 0.00 0.00 76 1019.2
20260506032323 16 203 4.8 9.7 0.00 0.00 0.00 76 1019.1
20260506032223 16 203 3.2 6.4 0.00 0.00 0.00 76 1019.1
20260506032142 16 203 3.2 6.4 0.00 0.00 0.00 76 1019.2
20260506032022 16 203 1.6 4.8 0.00 0.00 0.00 76 1019.2
20260506032003 16 203 3.2 4.8 0.00 0.00 0.00 76 1019.1
20260506031820 16 248 3.2 6.4 0.00 0.00 0.00 76 1019.2
20260506031722 16 225 4.8 8.0 0.00 0.00 0.00 76 1019.1
20260506031622 16 203 8.0 17.7 0.00 0.00 0.00 76 1019.2
20260506031522 16 225 6.4 11.3 0.00 0.00 0.00 76 1019.1
20260506031422 16 180 9.7 19.3 0.00 0.00 0.00 76 1019.1
20260506031322 16 248 6.4 11.3 0.00 0.00 0.00 76 1019.1
20260506031223 16 180 6.4 12.9 0.00 0.00 0.00 76 1019.1
20260506031124 16 180 4.8 12.9 0.00 0.00 0.00 76 1019.1
20260506031024 16 180 4.8 8.0 0.00 0.00 0.00 76 1019.1
20260506030943 16 225 4.8 8.0 0.00 0.00 0.00 75 1019.1
20260506030824 16 203 4.8 11.3 0.00 0.00 0.00 75 1019.2
20260506030720 16 225 3.2 4.8 0.00 0.00 0.00 75 1019.2
20260506030623 16 135 4.8 8.0 0.00 0.00 0.00 75 1019.3
20260506030522 16 203 4.8 8.0 0.00 0.00 0.00 75 1019.2
20260506030422 16 225 3.2 6.4 0.00 0.00 0.00 75 1019.2
20260506030322 16 225 6.4 12.9 0.00 0.00 0.00 75 1019.1
20260506030222 16 248 6.4 8.0 0.00 0.00 0.00 75 1019.2
20260506030122 16 248 4.8 9.7 0.00 0.00 0.00 75 1019.3
20260506030022 16 203 4.8 9.7 0.00 0.00 0.00 75 1019.2
20260506025922 16 248 3.2 6.4 0.00 0.00 0.00 74 1019.2
20260506025822 16 203 6.4 9.7 0.00 0.00 0.00 74 1019.3
20260506025722 16 225 6.4 11.3 0.00 0.00 0.00 74 1019.3
20260506025623 16 270 6.4 9.7 0.00 0.00 0.00 74 1019.2
20260506025422 16 225 4.8 8.0 0.00 0.00 0.00 74 1019.3
20260506025342 16 194 9.7 0.0 0.00 0.00 0.00 73 1019.3
20260506025224 16 194 9.7 0.0 0.00 0.00 0.00 73 1019.3
20260506025143 16 203 4.8 9.7 0.00 0.00 0.00 73 1019.3
20260506025023 16 248 3.2 4.8 0.00 0.00 0.00 73 1019.3
20260506024922 16 203 8.0 14.5 0.00 0.00 0.00 74 1019.2
20260506024824 16 270 9.7 17.7 0.00 0.00 0.00 73 1019.3
20260506024724 16 203 6.4 11.3 0.00 0.00 0.00 73 1019.3
20260506024622 16 180 3.2 6.4 0.00 0.00 0.00 73 1019.3
20260506024523 16 225 9.7 17.7 0.00 0.00 0.00 73 1019.4
20260506024422 16 203 4.8 8.0 0.00 0.00 0.00 73 1019.3
20260506024322 16 180 4.8 9.7 0.00 0.00 0.00 73 1019.3
20260506024242 16 180 1.6 4.8 0.00 0.00 0.00 73 1019.2
20260506024122 16 203 6.4 14.5 0.00 0.00 0.00 72 1019.2
20260506024022 16 225 6.4 11.3 0.00 0.00 0.00 72 1019.2
20260506023922 17 203 8.0 11.3 0.00 0.00 0.00 72 1019.2
20260506023822 16 203 8.0 16.1 0.00 0.00 0.00 72 1019.2
20260506023722 17 248 6.4 11.3 0.00 0.00 0.00 72 1019.2
20260506023622 17 203 4.8 8.0 0.00 0.00 0.00 72 1019.2
20260506023522 17 180 6.4 9.7 0.00 0.00 0.00 72 1019.2
20260506023422 17 203 4.8 9.7 0.00 0.00 0.00 72 1019.1
20260506023322 17 203 4.8 9.7 0.00 0.00 0.00 71 1019.2
20260506023222 17 180 6.4 11.3 0.00 0.00 0.00 71 1019.2
20260506023122 17 203 6.4 11.3 0.00 0.00 0.00 71 1019.2
20260506023022 17 225 4.8 14.5 0.00 0.00 0.00 71 1019.2
20260506022922 17 225 1.6 3.2 0.00 0.00 0.00 71 1019.2
20260506022825 17 248 3.2 6.4 0.00 0.00 0.00 71 1019.2
20260506022723 17 180 6.4 11.3 0.00 0.00 0.00 71 1019.2
20260506022643 17 248 8.0 12.9 0.00 0.00 0.00 71 1019.2
20260506022522 17 225 8.0 16.1 0.00 0.00 0.00 71 1019.2
20260506022422 17 203 6.4 17.7 0.00 0.00 0.00 71 1019.2
20260506022322 17 203 6.4 14.5 0.00 0.00 0.00 71 1019.3
20260506022222 17 203 9.7 16.1 0.00 0.00 0.00 71 1019.3
20260506022122 17 225 6.4 11.3 0.00 0.00 0.00 71 1019.3
20260506022102 17 180 4.8 9.7 0.00 0.00 0.00 71 1019.2
20260506021942 17 203 9.7 16.1 0.00 0.00 0.00 71 1019.2
20260506021822 17 248 6.4 12.9 0.00 0.00 0.00 71 1019.2
20260506021725 17 203 6.4 12.9 0.00 0.00 0.00 71 1019.1
20260506021622 17 203 4.8 11.3 0.00 0.00 0.00 71 1019.2
20260506021524 17 180 8.0 12.9 0.00 0.00 0.00 71 1019.1
20260506021424 17 203 4.8 9.7 0.00 0.00 0.00 71 1019.0
20260506021325 17 180 6.4 9.7 0.00 0.00 0.00 71 1019.0
20260506021225 17 270 8.0 19.3 0.00 0.00 0.00 71 1019.0
20260506021122 17 270 6.4 12.9 0.00 0.00 0.00 71 1019.1
20260506021024 17 203 4.8 8.0 0.00 0.00 0.00 71 1019.0
20260506020921 17 315 3.2 8.0 0.00 0.00 0.00 71 1019.0
20260506020823 17 180 6.4 9.7 0.00 0.00 0.00 71 1018.9
20260506020722 17 270 8.0 16.1 0.00 0.00 0.00 71 1018.9
20260506020623 17 225 6.4 11.3 0.00 0.00 0.00 71 1018.9
20260506020543 17 180 6.4 12.9 0.00 0.00 0.00 71 1018.9
20260506020442 17 270 3.2 6.4 0.00 0.00 0.00 71 1019.0
20260506020322 17 270 6.4 11.3 0.00 0.00 0.00 71 1018.9
20260506020222 17 293 3.2 8.0 0.00 0.00 0.00 71 1018.9
20260506020122 17 225 3.2 12.9 0.00 0.00 0.00 71 1018.8
20260506020022 17 225 1.6 4.8 0.00 0.00 0.00 71 1018.8
20260506015922 17 225 6.4 14.5 0.00 0.00 0.00 70 1018.8
20260506015822 17 225 4.8 6.4 0.00 0.00 0.00 70 1018.8
20260506015722 17 203 4.8 9.7 0.00 0.00 0.00 70 1018.8
20260506015622 17 225 4.8 9.7 0.00 0.00 0.00 70 1018.8
20260506015523 17 180 4.8 9.7 0.00 0.00 0.00 71 1018.7
20260506015424 17 225 3.2 6.4 0.00 0.00 0.00 70 1018.8
20260506015342 17 203 6.4 11.3 0.00 0.00 0.00 70 1018.8
20260506015222 17 248 3.2 9.7 0.00 0.00 0.00 70 1018.8
20260506015122 17 225 3.2 4.8 0.00 0.00 0.00 70 1018.8
20260506015024 17 248 3.2 8.0 0.00 0.00 0.00 70 1018.8
20260506014923 17 203 6.4 11.3 0.00 0.00 0.00 70 1018.7
20260506014822 17 203 11.3 19.3 0.00 0.00 0.00 70 1018.8
20260506014722 17 248 4.8 11.3 0.00 0.00 0.00 70 1018.8
20260506014642 17 180 4.8 9.7 0.00 0.00 0.00 70 1018.8
20260506014522 17 180 4.8 8.0 0.00 0.00 0.00 70 1018.8
20260506014422 17 203 6.4 12.9 0.00 0.00 0.00 70 1018.7
20260506014323 17 203 4.8 11.3 0.00 0.00 0.00 70 1018.8
20260506014222 17 203 6.4 8.0 0.00 0.00 0.00 70 1018.7
20260506014122 17 180 8.0 12.9 0.00 0.00 0.00 70 1018.6
20260506014043 17 203 6.4 16.1 0.00 0.00 0.00 70 1018.6
20260506013922 17 225 3.2 6.4 0.00 0.00 0.00 70 1018.6
20260506013822 17 203 8.0 17.7 0.00 0.00 0.00 70 1018.6
20260506013722 17 248 3.2 6.4 0.00 0.00 0.00 70 1018.6
20260506013622 17 225 6.4 9.7 0.00 0.00 0.00 70 1018.7
20260506013522 17 225 3.2 3.2 0.00 0.00 0.00 70 1018.6
20260506013422 17 225 6.4 9.7 0.00 0.00 0.00 70 1018.6
20260506013343 17 270 3.2 8.0 0.00 0.00 0.00 70 1018.6
20260506013223 17 270 3.2 6.4 0.00 0.00 0.00 70 1018.5
20260506013122 17 180 3.2 6.4 0.00 0.00 0.00 70 1018.5
20260506013023 17 225 6.4 11.3 0.00 0.00 0.00 70 1018.5
20260506012922 17 248 6.4 17.7 0.00 0.00 0.00 70 1018.5
20260506012822 17 248 3.2 4.8 0.00 0.00 0.00 70 1018.5
20260506012722 17 180 3.2 4.8 0.00 0.00 0.00 70 1018.5
20260506012642 17 180 6.4 9.7 0.00 0.00 0.00 70 1018.6
20260506012542 17 203 4.8 6.4 0.00 0.00 0.00 70 1018.6
20260506012442 17 180 6.4 11.3 0.00 0.00 0.00 70 1018.6
20260506012322 17 203 3.2 8.0 0.00 0.00 0.00 70 1018.5
20260506012224 17 203 4.8 8.0 0.00 0.00 0.00 69 1018.5
20260506012123 17 225 4.8 6.4 0.00 0.00 0.00 70 1018.5
20260506012025 17 203 4.8 9.7 0.00 0.00 0.00 70 1018.5
20260506011922 17 203 6.4 11.3 0.00 0.00 0.00 69 1018.5
20260506011842 17 203 9.7 17.7 0.00 0.00 0.00 69 1018.5
20260506011722 17 225 8.0 14.5 0.00 0.00 0.00 70 1018.4
20260506011622 17 203 11.3 17.7 0.00 0.00 0.00 70 1018.5
20260506011522 17 203 3.2 4.8 0.00 0.00 0.00 70 1018.5
20260506011423 17 203 4.8 6.4 0.00 0.00 0.00 70 1018.4
20260506011322 17 180 4.8 11.3 0.00 0.00 0.00 70 1018.4
20260506011223 17 180 6.4 12.9 0.00 0.00 0.00 70 1018.4
20260506011122 17 180 4.8 9.7 0.00 0.00 0.00 70 1018.4
20260506011022 17 203 4.8 12.9 0.00 0.00 0.00 70 1018.4
20260506010922 17 270 8.0 17.7 0.00 0.00 0.00 70 1018.4
20260506010823 17 225 4.8 12.9 0.00 0.00 0.00 70 1018.3
20260506010723 17 203 1.6 3.2 0.00 0.00 0.00 70 1018.3
20260506010622 17 203 4.8 9.7 0.00 0.00 0.00 70 1018.3
20260506010522 17 248 8.0 11.3 0.00 0.00 0.00 70 1018.3
20260506010422 17 225 4.8 8.0 0.00 0.00 0.00 70 1018.3
20260506010322 17 225 8.0 12.9 0.00 0.00 0.00 70 1018.3
20260506010242 17 180 3.2 12.9 0.00 0.00 0.00 70 1018.2
20260506010122 17 180 4.8 6.4 0.00 0.00 0.00 70 1018.2
20260506010022 17 225 8.0 17.7 0.00 0.00 0.00 70 1018.2
20260506005922 16 225 3.2 4.8 0.00 0.00 0.00 70 1018.2
20260506005822 16 248 11.3 17.7 0.00 0.00 0.00 70 1018.1
20260506005722 16 135 8.0 16.1 0.00 0.00 0.00 70 1018.2
20260506005623 16 203 4.8 11.3 0.00 0.00 0.00 71 1018.2
20260506005522 16 270 4.8 6.4 0.00 0.00 0.00 70 1018.2
20260506005422 16 270 3.2 4.8 0.00 0.00 0.00 70 1018.2
20260506005324 16 180 3.2 6.4 0.00 0.00 0.00 70 1018.2
20260506005222 16 180 1.6 8.0 0.00 0.00 0.00 70 1018.1
20260506005122 16 203 4.8 9.7 0.00 0.00 0.00 70 1018.2
20260506005022 16 293 4.8 14.5 0.00 0.00 0.00 70 1018.1
20260506004921 16 270 6.4 16.1 0.00 0.00 0.00 70 1018.1
20260506004822 16 203 8.0 17.7 0.00 0.00 0.00 70 1018.1
20260506004722 16 270 3.2 4.8 0.00 0.00 0.00 70 1018.1
20260506004623 17 203 6.4 9.7 0.00 0.00 0.00 70 1018.1
20260506004522 17 203 1.6 8.0 0.00 0.00 0.00 70 1018.1
20260506004422 17 180 1.6 3.2 0.00 0.00 0.00 70 1018.1
20260506004324 17 248 3.2 6.4 0.00 0.00 0.00 70 1018.0
20260506004242 17 203 3.2 8.0 0.00 0.00 0.00 70 1018.0
20260506004121 17 203 3.2 6.4 0.00 0.00 0.00 70 1018.1
20260506004022 17 225 4.8 11.3 0.00 0.00 0.00 70 1018.0
20260506003942 17 225 8.0 14.5 0.00 0.00 0.00 70 1018.1
20260506003822 17 270 3.2 6.4 0.00 0.00 0.00 70 1018.0
20260506003722 17 203 4.8 8.0 0.00 0.00 0.00 69 1018.0
20260506003622 17 225 4.8 16.1 0.00 0.00 0.00 70 1018.0
20260506003542 17 248 4.8 8.0 0.00 0.00 0.00 69 1018.0
20260506003442 17 270 6.4 11.3 0.00 0.00 0.00 69 1017.9
20260506003322 17 270 3.2 4.8 0.00 0.00 0.00 69 1018.0
20260506003222 17 225 1.6 3.2 0.00 0.00 0.00 69 1018.0
20260506003121 17 225 4.8 12.9 0.00 0.00 0.00 69 1017.9
20260506003021 17 225 4.8 14.5 0.00 0.00 0.00 69 1018.0
20260506002923 17 248 6.4 11.3 0.00 0.00 0.00 69 1017.9
20260506002824 17 270 9.7 19.3 0.00 0.00 0.00 69 1018.0
20260506002725 17 248 4.8 6.4 0.00 0.00 0.00 68 1017.9
20260506002622 17 248 4.8 8.0 0.00 0.00 0.00 68 1017.8
20260506002524 17 270 8.0 17.7 0.00 0.00 0.00 68 1017.8
20260506002422 17 270 3.2 9.7 0.00 0.00 0.00 68 1017.7
20260506002322 17 203 1.6 3.2 0.00 0.00 0.00 68 1017.7
20260506002222 17 203 3.2 8.0 0.00 0.00 0.00 68 1017.7
20260506002122 17 158 1.6 4.8 0.00 0.00 0.00 68 1017.8
20260506002022 17 203 4.8 8.0 0.00 0.00 0.00 68 1017.8
20260506001942 17 180 9.7 14.5 0.00 0.00 0.00 68 1017.8
20260506001842 17 180 8.0 14.5 0.00 0.00 0.00 68 1017.7
20260506001723 17 225 11.3 19.3 0.00 0.00 0.00 68 1017.8
20260506001622 17 225 6.4 16.1 0.00 0.00 0.00 68 1017.8
20260506001544 17 248 3.2 9.7 0.00 0.00 0.00 68 1017.8
20260506001422 17 203 4.8 9.7 0.00 0.00 0.00 68 1017.8
20260506001323 17 203 1.6 4.8 0.00 0.00 0.00 68 1017.7
20260506001222 17 203 3.2 6.4 0.00 0.00 0.00 68 1017.7
20260506001122 17 225 4.8 9.7 0.00 0.00 0.00 68 1017.6
20260506001022 17 203 8.0 16.1 0.00 0.00 0.00 68 1017.6
20260506000922 17 180 4.8 11.3 0.00 0.00 0.00 68 1017.7
20260506000822 17 180 6.4 11.3 0.00 0.00 0.00 68 1017.6
20260506000722 17 248 4.8 8.0 0.00 0.00 0.00 67 1017.6
20260506000623 17 180 6.4 9.7 0.00 0.00 0.00 67 1017.6
20260506000522 17 203 4.8 11.3 0.00 0.00 0.00 67 1017.5
20260506000423 17 203 4.8 6.4 0.00 0.00 0.00 67 1017.6
20260506000402 17 270 3.2 6.4 0.00 0.00 0.00 67 1017.6
20260506000242 17 248 4.8 6.4 0.00 0.00 0.00 67 1017.6
20260506000122 17 225 1.6 8.0 0.00 0.00 0.00 67 1017.5
20260505235922 17 180 4.8 6.4 0.00 0.00 0.00 67 1017.6
20260505235821 17 180 4.8 29.0 0.00 0.00 0.00 67 1017.5
20260505235722 17 203 9.7 29.0 0.00 0.00 0.00 67 1017.5
20260505235622 17 203 3.2 8.0 0.00 0.00 0.00 67 1017.5
20260505235521 17 248 4.8 11.3 0.00 0.00 0.00 67 1017.5
20260505235421 17 248 6.4 9.7 0.00 0.00 0.00 67 1017.4
20260505235322 17 248 11.3 22.5 0.00 0.00 0.00 67 1017.4
20260505235223 17 203 4.8 16.1 0.00 0.00 0.00 67 1017.4
20260505235202 17 225 8.0 14.5 0.00 0.00 0.00 67 1017.5
20260505235022 17 315 6.4 11.3 0.00 0.00 0.00 67 1017.4
20260505234921 17 203 3.2 6.4 0.00 0.00 0.00 67 1017.4
20260505234822 17 180 4.8 9.7 0.00 0.00 0.00 67 1017.3
20260505234722 17 203 6.4 9.7 0.00 0.00 0.00 67 1017.3
20260505234622 17 225 9.7 17.7 0.00 0.00 0.00 67 1017.3
20260505234522 17 180 9.7 24.1 0.00 0.00 0.00 68 1017.3
20260505234421 17 270 9.7 19.3 0.00 0.00 0.00 67 1017.2
20260505234322 17 203 8.0 24.1 0.00 0.00 0.00 67 1017.3
20260505234222 17 203 9.7 24.1 0.00 0.00 0.00 68 1017.3
20260505234123 17 225 4.8 9.7 0.00 0.00 0.00 67 1017.2
20260505234025 17 180 6.4 11.3 0.00 0.00 0.00 68 1017.2
20260505233923 17 180 4.8 9.7 0.00 0.00 0.00 68 1017.2
20260505233824 17 180 3.2 6.4 0.00 0.00 0.00 68 1017.2
20260505233722 17 248 3.2 6.4 0.00 0.00 0.00 68 1017.2
20260505233622 17 248 3.2 8.0 0.00 0.00 0.00 68 1017.2
20260505233521 17 225 8.0 16.1 0.00 0.00 0.00 67 1017.2
20260505233423 17 248 6.4 9.7 0.00 0.00 0.00 67 1017.2
20260505233323 17 203 3.2 6.4 0.00 0.00 0.00 67 1017.2
20260505233222 17 248 6.4 11.3 0.00 0.00 0.00 67 1017.1
20260505233144 17 203 8.0 12.9 0.00 0.00 0.00 67 1017.1
20260505233022 17 248 1.6 6.4 0.00 0.00 0.00 67 1017.1
20260505232922 17 248 3.2 6.4 0.00 0.00 0.00 67 1017.1
20260505232822 17 248 3.2 6.4 0.00 0.00 0.00 67 1017.1
20260505232722 17 203 6.4 8.0 0.00 0.00 0.00 67 1017.1
20260505232622 17 203 3.2 8.0 0.00 0.00 0.00 67 1017.1
20260505232542 17 225 8.0 11.3 0.00 0.00 0.00 67 1017.0
20260505232322 17 203 6.4 9.7 0.00 0.00 0.00 67 1017.0
20260505232221 17 203 6.4 17.7 0.00 0.00 0.00 67 1017.0
20260505232121 17 248 8.0 16.1 0.00 0.00 0.00 66 1017.0
20260505232022 17 180 8.0 11.3 0.00 0.00 0.00 66 1017.0
20260505231923 17 225 4.8 9.7 0.00 0.00 0.00 67 1017.0
20260505231822 17 158 3.2 6.4 0.00 0.00 0.00 67 1017.0
20260505231722 17 158 4.8 6.4 0.00 0.00 0.00 66 1017.0
20260505231622 17 203 6.4 12.9 0.00 0.00 0.00 66 1016.9
20260505231522 17 225 6.4 12.9 0.00 0.00 0.00 66 1016.9
20260505231422 17 203 4.8 8.0 0.00 0.00 0.00 66 1016.8
20260505231322 17 203 8.0 17.7 0.00 0.00 0.00 66 1016.9
20260505231222 17 203 9.7 14.5 0.00 0.00 0.00 66 1016.9
20260505231122 17 203 8.0 16.1 0.00 0.00 0.00 66 1016.9
20260505231022 18 203 4.8 9.7 0.00 0.00 0.00 66 1016.9
20260505230921 18 248 6.4 16.1 0.00 0.00 0.00 66 1016.8
20260505230821 18 248 6.4 16.1 0.00 0.00 0.00 66 1016.8
20260505230722 18 203 4.8 9.7 0.00 0.00 0.00 66 1016.9
20260505230622 18 248 4.8 8.0 0.00 0.00 0.00 66 1016.9
20260505230522 18 180 6.4 22.5 0.00 0.00 0.00 65 1016.8
20260505230421 18 248 8.0 20.9 0.00 0.00 0.00 65 1016.9
20260505230322 18 203 8.0 12.9 0.00 0.00 0.00 65 1016.8
20260505230241 18 180 8.0 14.5 0.00 0.00 0.00 66 1016.9
20260505230122 18 180 6.4 9.7 0.00 0.00 0.00 65 1016.9
20260505230022 18 135 4.8 9.7 0.00 0.00 0.00 65 1016.9
20260505225921 18 203 8.0 17.7 0.00 0.00 0.00 64 1016.8
20260505225842 18 180 8.0 14.5 0.00 0.00 0.00 65 1016.9
20260505225721 18 203 3.2 4.8 0.00 0.00 0.00 65 1016.8
20260505225621 18 248 4.8 8.0 0.00 0.00 0.00 65 1016.8
20260505225522 18 225 6.4 12.9 0.00 0.00 0.00 64 1016.8
20260505225422 18 225 6.4 12.9 0.00 0.00 0.00 64 1016.7
20260505225322 18 225 6.4 12.9 0.00 0.00 0.00 64 1016.7
20260505225223 18 225 8.0 11.3 0.00 0.00 0.00 63 1016.8
20260505225121 18 203 6.4 14.5 0.00 0.00 0.00 64 1016.7
20260505225021 18 203 9.7 14.5 0.00 0.00 0.00 63 1016.7
20260505224921 18 203 4.8 8.0 0.00 0.00 0.00 64 1016.8
20260505224821 18 203 4.8 8.0 0.00 0.00 0.00 63 1016.8
20260505224721 19 203 9.7 20.9 0.00 0.00 0.00 63 1016.8
20260505224621 19 225 6.4 12.9 0.00 0.00 0.00 63 1016.8
20260505224521 19 225 4.8 8.0 0.00 0.00 0.00 63 1016.7
20260505224424 19 225 3.2 6.4 0.00 0.00 0.00 63 1016.8
20260505224324 19 270 4.8 8.0 0.00 0.00 0.00 63 1016.8
20260505224225 19 203 6.4 12.9 0.00 0.00 0.00 62 1016.8
20260505224122 19 180 6.4 11.3 0.00 0.00 0.00 63 1016.9
20260505224024 19 248 4.8 6.4 0.00 0.00 0.00 63 1016.9
20260505223943 19 248 6.4 12.9 0.00 0.00 0.00 62 1017.0
20260505223824 19 203 8.0 17.7 0.00 0.00 0.00 62 1017.0
20260505223721 19 203 8.0 16.1 0.00 0.00 0.00 62 1017.0
20260505223621 19 180 11.3 16.1 0.00 0.00 0.00 62 1017.0
20260505223521 20 203 8.0 12.9 0.00 0.00 0.00 62 1017.0
20260505223423 20 248 8.0 14.5 0.00 0.00 0.00 62 1017.1
20260505223342 20 225 6.4 11.3 0.00 0.00 0.00 62 1017.1
20260505223222 20 248 4.8 11.3 0.00 0.00 0.00 62 1017.1
20260505223123 20 248 4.8 9.7 0.00 0.00 0.00 62 1017.0
20260505223022 20 225 3.2 6.4 0.00 0.00 0.00 62 1017.0
20260505222921 20 270 3.2 4.8 0.00 0.00 0.00 62 1017.1
20260505222823 20 180 3.2 4.8 0.00 0.00 0.00 62 1017.2
20260505222722 20 248 4.8 12.9 0.00 0.00 0.00 62 1017.0
20260505222642 20 180 4.8 8.0 0.00 0.00 0.00 62 1017.1
20260505222523 20 180 6.4 12.9 0.00 0.00 0.00 63 1017.0
20260505222422 20 203 8.0 14.5 0.00 0.00 0.00 62 1017.0
20260505222341 20 225 8.0 17.7 0.00 0.00 0.00 62 1017.1
20260505222221 20 203 4.8 11.3 0.00 0.00 0.00 62 1017.0
20260505222122 20 270 11.3 24.1 0.00 0.00 0.00 61 1017.0
20260505222021 20 203 6.4 9.7 0.00 0.00 0.00 62 1017.0
20260505221921 20 225 3.2 4.8 0.00 0.00 0.00 63 1017.0
20260505221821 20 180 4.8 8.0 0.00 0.00 0.00 62 1017.1
20260505221721 20 180 3.2 4.8 0.00 0.00 0.00 62 1017.0
20260505221621 20 180 4.8 12.9 0.00 0.00 0.00 62 1017.0
20260505221522 20 270 4.8 8.0 0.00 0.00 0.00 62 1017.0
20260505221422 20 248 3.2 4.8 0.00 0.00 0.00 62 1017.1
20260505221322 20 203 4.8 9.7 0.00 0.00 0.00 62 1017.0
20260505221224 20 225 8.0 11.3 0.00 0.00 0.00 62 1017.0
20260505221122 20 225 8.0 17.7 0.00 0.00 0.00 62 1017.0
20260505221021 20 203 4.8 9.7 0.00 0.00 0.00 62 1017.0
20260505220942 20 225 3.2 8.0 0.00 0.00 0.00 63 1017.0
20260505220821 20 225 1.6 4.8 0.00 0.00 0.00 63 1017.0
20260505220721 20 158 1.6 4.8 0.00 0.00 0.00 62 1017.0
20260505220621 20 158 6.4 12.9 0.00 0.00 0.00 63 1017.0
20260505220522 20 203 3.2 4.8 0.00 0.00 0.00 65 1017.0
20260505220442 20 203 3.2 6.4 0.00 0.00 0.00 62 1017.0
20260505220322 20 203 6.4 11.3 0.00 0.00 0.00 62 1017.0
20260505220221 20 203 6.4 17.7 0.00 0.00 0.00 62 1016.9
20260505220121 20 203 3.2 6.4 0.00 0.00 0.00 62 1016.9
20260505220021 20 225 4.8 14.5 0.00 0.00 0.00 62 1017.0
20260505215921 20 180 4.8 8.0 0.00 0.00 0.00 62 1016.9
20260505215821 20 180 8.0 12.9 0.00 0.00 0.00 62 1016.8
20260505215722 20 225 4.8 11.3 0.00 0.00 0.00 62 1016.9
20260505215621 20 203 11.3 17.7 0.00 0.00 0.00 61 1016.8
20260505215521 20 203 6.4 11.3 0.00 0.00 0.00 62 1016.9
20260505215421 20 203 6.4 12.9 0.00 0.00 0.00 62 1016.8
20260505215322 20 180 1.6 4.8 0.00 0.00 0.00 62 1016.8
20260505215225 20 180 1.6 4.8 0.00 0.00 0.00 62 1016.9
20260505215121 20 203 4.8 8.0 0.00 0.00 0.00 62 1016.9
20260505215021 20 225 3.2 4.8 0.00 0.00 0.00 62 1016.9
20260505214922 20 225 6.4 11.3 0.00 0.00 0.00 62 1016.9
20260505214822 20 225 6.4 11.3 0.00 0.00 0.00 62 1016.9
20260505214721 20 180 8.0 9.7 0.00 0.00 0.00 62 1016.9
20260505214621 20 225 4.8 9.7 0.00 0.00 0.00 63 1016.9
20260505214544 20 225 1.6 3.2 0.00 0.00 0.00 63 1016.9
20260505214421 20 225 4.8 11.3 0.00 0.00 0.00 63 1016.9
20260505214323 20 270 3.2 8.0 0.00 0.00 0.00 63 1016.9
20260505214222 20 248 3.2 8.0 0.00 0.00 0.00 63 1017.0
20260505214121 20 203 3.2 6.4 0.00 0.00 0.00 63 1016.9
20260505214021 20 203 4.8 6.4 0.00 0.00 0.00 63 1016.9
20260505214002 20 225 3.2 6.4 0.00 0.00 0.00 64 1016.8
20260505213822 20 225 6.4 17.7 0.00 0.00 0.00 63 1016.9
20260505213721 20 158 3.2 6.4 0.00 0.00 0.00 62 1016.9
20260505213621 20 203 8.0 17.7 0.00 0.00 0.00 62 1016.9
20260505213521 20 203 8.0 12.9 0.00 0.00 0.00 62 1016.8
20260505213421 20 203 4.8 9.7 0.00 0.00 0.00 63 1016.8
20260505213401 20 135 4.8 9.7 0.00 0.00 0.00 62 1016.8
20260505213222 20 180 8.0 14.5 0.00 0.00 0.00 63 1016.8
20260505213123 20 225 3.2 8.0 0.00 0.00 0.00 63 1016.9
20260505213022 20 225 1.6 4.8 0.00 0.00 0.00 63 1016.8
20260505212921 20 225 4.8 14.5 0.00 0.00 0.00 62 1016.8
20260505212822 20 180 6.4 11.3 0.00 0.00 0.00 61 1016.9
20260505212722 20 225 6.4 11.3 0.00 0.00 0.00 61 1016.8
20260505212621 20 203 6.4 14.5 0.00 0.00 0.00 60 1016.8
20260505212521 20 203 6.4 12.9 0.00 0.00 0.00 61 1016.8
20260505212422 20 203 3.2 9.7 0.00 0.00 0.00 62 1016.8
20260505212322 20 225 6.4 12.9 0.00 0.00 0.00 61 1016.8
20260505212221 20 225 8.0 20.9 0.00 0.00 0.00 61 1016.9
20260505212142 20 270 1.6 3.2 0.00 0.00 0.00 62 1016.8
20260505212043 20 270 4.8 9.7 0.00 0.00 0.00 61 1016.8
20260505211921 20 225 3.2 8.0 0.00 0.00 0.00 61 1016.7
20260505211821 20 203 8.0 17.7 0.00 0.00 0.00 60 1016.8
20260505211722 20 180 8.0 16.1 0.00 0.00 0.00 62 1016.8
20260505211621 20 203 6.4 11.3 0.00 0.00 0.00 61 1016.8
20260505211521 20 203 3.2 4.8 0.00 0.00 0.00 63 1016.8
20260505211441 20 225 6.4 11.3 0.00 0.00 0.00 60 1016.9
20260505211321 20 203 6.4 16.1 0.00 0.00 0.00 63 1016.8
20260505211221 20 180 4.8 8.0 0.00 0.00 0.00 63 1016.8
20260505211121 20 203 4.8 8.0 0.00 0.00 0.00 63 1016.9
20260505211021 20 180 4.8 9.7 0.00 0.00 0.00 62 1016.9
20260505210921 20 68 3.2 6.4 0.00 0.00 0.00 65 1016.9
20260505210822 20 45 4.8 8.0 0.00 0.00 0.00 62 1016.9
20260505210802 20 158 6.4 16.1 0.00 0.00 0.00 62 1017.0
20260505210621 20 180 4.8 8.0 0.00 0.00 0.00 62 1016.9
20260505210541 20 45 1.6 4.8 0.00 0.00 0.00 62 1016.9
20260505210421 20 180 3.2 6.4 0.00 0.00 0.00 64 1016.9
20260505210341 20 180 3.2 4.8 0.00 0.00 0.00 63 1016.9
20260505210221 20 158 6.4 9.7 0.00 0.00 0.00 62 1017.0
20260505210121 20 135 3.2 8.0 0.00 0.00 0.00 63 1016.9
20260505210021 20 135 3.2 8.0 0.00 0.00 0.00 64 1016.9
20260505205942 20 203 4.8 8.0 0.00 0.00 0.00 62 1016.9
20260505205823 20 203 4.8 9.7 0.00 0.00 0.00 62 1016.9
20260505205722 20 180 4.8 8.0 0.00 0.00 0.00 61 1016.8
20260505205622 21 158 8.0 11.3 0.00 0.00 0.00 61 1016.8
20260505205523 21 158 8.0 11.3 0.00 0.00 0.00 61 1016.8
20260505205423 21 158 3.2 9.7 0.00 0.00 0.00 62 1016.9
20260505205322 21 158 6.4 12.9 0.00 0.00 0.00 62 1016.8
20260505205222 21 158 4.8 8.0 0.00 0.00 0.00 62 1016.7
20260505205121 21 158 3.2 8.0 0.00 0.00 0.00 61 1016.7
20260505205022 21 158 3.2 4.8 0.00 0.00 0.00 61 1016.8
20260505204921 21 180 4.8 9.7 0.00 0.00 0.00 62 1016.7
20260505204821 21 225 3.2 8.0 0.00 0.00 0.00 63 1016.7
20260505204741 21 225 3.2 6.4 0.00 0.00 0.00 61 1016.7
20260505204622 21 203 3.2 11.3 0.00 0.00 0.00 62 1016.7
20260505204521 21 225 6.4 11.3 0.00 0.00 0.00 60 1016.6
20260505204423 21 180 6.4 16.1 0.00 0.00 0.00 62 1016.7
20260505204323 21 158 4.8 6.4 0.00 0.00 0.00 63 1016.7
20260505204223 21 225 3.2 8.0 0.00 0.00 0.00 62 1016.7
20260505204121 21 225 4.8 9.7 0.00 0.00 0.00 63 1016.7
20260505204021 21 248 1.6 3.2 0.00 0.00 0.00 63 1016.7
20260505203922 21 175 3.2 0.0 0.00 0.00 0.00 62 1016.7
20260505203822 21 175 3.2 0.0 0.00 0.00 0.00 62 1016.7
20260505203721 21 175 3.2 0.0 0.00 0.00 0.00 62 1016.7
20260505203622 21 180 6.4 8.0 0.00 0.00 0.00 62 1016.7
20260505203521 21 203 3.2 8.0 0.00 0.00 0.00 62 1016.8
20260505203421 21 203 3.2 4.8 0.00 0.00 0.00 62 1016.7
20260505203322 21 248 4.8 8.0 0.00 0.00 0.00 64 1016.8
20260505203241 21 203 3.2 4.8 0.00 0.00 0.00 61 1016.8
20260505203122 21 203 4.8 6.4 0.00 0.00 0.00 61 1016.8
20260505203021 21 180 4.8 11.3 0.00 0.00 0.00 62 1016.8
20260505202924 21 203 3.2 9.7 0.00 0.00 0.00 62 1016.9
20260505202821 21 180 6.4 14.5 0.00 0.00 0.00 61 1016.8
20260505202742 21 203 6.4 14.5 0.00 0.00 0.00 62 1016.9
20260505202722 21 203 3.2 6.4 0.00 0.00 0.00 63 1016.9
20260505202442 21 270 3.2 4.8 0.00 0.00 0.00 65 1016.8
20260505202324 21 158 1.6 3.2 0.00 0.00 0.00 64 1016.8
20260505202241 21 158 3.2 8.0 0.00 0.00 0.00 63 1016.8
20260505202141 21 203 4.8 6.4 0.00 0.00 0.00 67 1016.8
20260505202021 21 270 3.2 4.8 0.00 0.00 0.00 64 1016.9
20260505201921 21 203 3.2 4.8 0.00 0.00 0.00 62 1016.9
20260505201821 20 225 4.8 8.0 0.00 0.00 0.00 62 1016.9
20260505201721 20 180 3.2 8.0 0.00 0.00 0.00 64 1016.9
20260505201621 20 203 1.6 4.8 0.00 0.00 0.00 62 1016.9
20260505201521 20 225 6.4 11.3 0.00 0.00 0.00 63 1016.9
20260505201425 20 225 8.0 17.7 0.00 0.00 0.00 63 1016.9
20260505201321 20 248 1.6 4.8 0.00 0.00 0.00 65 1017.0
20260505201301 20 248 3.2 6.4 0.00 0.00 0.00 63 1016.9
20260505201121 20 248 4.8 6.4 0.00 0.00 0.00 63 1016.9
20260505201021 20 180 4.8 9.7 0.00 0.00 0.00 63 1016.9
20260505200941 20 180 8.0 17.7 0.00 0.00 0.00 62 1016.9
20260505200822 20 158 4.8 9.7 0.00 0.00 0.00 62 1016.9
20260505200723 20 158 4.8 9.7 0.00 0.00 0.00 63 1016.9
20260505200621 21 158 6.4 14.5 0.00 0.00 0.00 62 1016.9
20260505200601 21 158 6.4 8.0 0.00 0.00 0.00 62 1017.0
20260505200421 21 203 4.8 9.7 0.00 0.00 0.00 62 1017.0
20260505200323 21 225 3.2 9.7 0.00 0.00 0.00 63 1017.0
20260505200221 21 270 4.8 11.3 0.00 0.00 0.00 63 1016.9
20260505200122 20 203 3.2 8.0 0.00 0.00 0.00 62 1017.0
20260505200021 20 180 6.4 16.1 0.00 0.00 0.00 62 1017.0
20260505195921 21 248 4.8 8.0 0.00 0.00 0.00 62 1017.0
20260505195821 21 225 8.0 17.7 0.00 0.00 0.00 63 1017.0
20260505195722 21 180 3.2 6.4 0.00 0.00 0.00 64 1017.0
20260505195622 21 180 4.8 8.0 0.00 0.00 0.00 62 1017.1
20260505195522 21 180 3.2 8.0 0.00 0.00 0.00 63 1017.1
20260505195423 20 225 3.2 6.4 0.00 0.00 0.00 63 1017.1
20260505195321 21 203 6.4 11.3 0.00 0.00 0.00 62 1017.1
20260505195224 21 203 3.2 4.8 0.00 0.00 0.00 62 1017.1
20260505195121 21 203 4.8 9.7 0.00 0.00 0.00 62 1017.1
20260505195021 21 203 4.8 11.3 0.00 0.00 0.00 65 1017.2
20260505194941 21 203 4.8 9.7 0.00 0.00 0.00 62 1017.1
20260505194821 21 203 6.4 14.5 0.00 0.00 0.00 62 1017.1
20260505194721 21 180 6.4 9.7 0.00 0.00 0.00 62 1017.1
20260505194621 21 203 6.4 12.9 0.00 0.00 0.00 61 1017.0
20260505194542 21 90 4.8 12.9 0.00 0.00 0.00 61 1017.1
20260505194441 21 180 8.0 17.7 0.00 0.00 0.00 61 1017.2
20260505194341 21 203 4.8 6.4 0.00 0.00 0.00 61 1017.0
20260505194222 21 203 6.4 9.7 0.00 0.00 0.00 61 1017.0
20260505194121 21 135 4.8 11.3 0.00 0.00 0.00 61 1017.0
20260505194102 21 180 8.0 12.9 0.00 0.00 0.00 60 1017.1
20260505193921 21 158 8.0 12.9 0.00 0.00 0.00 60 1017.1
20260505193823 21 180 6.4 12.9 0.00 0.00 0.00 60 1017.1
20260505193741 21 248 3.2 6.4 0.00 0.00 0.00 60 1017.1
20260505193641 21 180 3.2 6.4 0.00 0.00 0.00 60 1017.1
20260505193521 21 225 6.4 9.7 0.00 0.00 0.00 60 1017.1
20260505193422 21 180 4.8 9.7 0.00 0.00 0.00 61 1017.2
20260505193321 21 180 4.8 9.7 0.00 0.00 0.00 62 1017.2
20260505193221 21 158 4.8 9.7 0.00 0.00 0.00 61 1017.2
20260505193121 21 180 6.4 11.3 0.00 0.00 0.00 60 1017.3
20260505193021 21 203 4.8 8.0 0.00 0.00 0.00 61 1017.3
20260505192941 21 180 4.8 8.0 0.00 0.00 0.00 60 1017.3
20260505192821 22 180 8.0 14.5 0.00 0.00 0.00 59 1017.2
20260505192721 22 203 6.4 12.9 0.00 0.00 0.00 60 1017.3
20260505192621 22 180 8.0 16.1 0.00 0.00 0.00 60 1017.3
20260505192522 22 203 4.8 8.0 0.00 0.00 0.00 60 1017.3
20260505192421 22 135 8.0 17.7 0.00 0.00 0.00 62 1017.3
20260505192321 22 225 1.6 6.4 0.00 0.00 0.00 61 1017.4
20260505192221 22 203 3.2 6.4 0.00 0.00 0.00 63 1017.4
20260505192121 22 45 1.6 3.2 0.00 0.00 0.00 62 1017.4
20260505192041 21 113 3.2 4.8 0.00 0.00 0.00 61 1017.4
20260505191921 21 180 4.8 8.0 0.00 0.00 0.00 62 1017.4
20260505191821 21 180 1.6 4.8 0.00 0.00 0.00 62 1017.5
20260505191721 21 158 8.0 12.9 0.00 0.00 0.00 60 1017.5
20260505191621 21 225 6.4 12.9 0.00 0.00 0.00 61 1017.5
20260505191522 21 203 4.8 8.0 0.00 0.00 0.00 63 1017.5
20260505191422 21 203 4.8 8.0 0.00 0.00 0.00 62 1017.6
20260505191324 21 203 8.0 14.5 0.00 0.00 0.00 60 1017.5
20260505191223 21 225 4.8 12.9 0.00 0.00 0.00 64 1017.6
20260505191143 21 315 3.2 4.8 0.00 0.00 0.00 65 1017.6
20260505191023 21 203 1.6 4.8 0.00 0.00 0.00 62 1017.6
20260505190921 21 180 4.8 12.9 0.00 0.00 0.00 62 1017.6
20260505190821 21 225 4.8 6.4 0.00 0.00 0.00 62 1017.6
20260505190721 21 203 4.8 8.0 0.00 0.00 0.00 62 1017.7
20260505190621 21 203 4.8 8.0 0.00 0.00 0.00 62 1017.7
20260505190521 21 203 6.4 11.3 0.00 0.00 0.00 61 1017.7
20260505190501 21 180 6.4 20.9 0.00 0.00 0.00 62 1017.8
20260505190321 21 180 4.8 8.0 0.00 0.00 0.00 62 1017.7
20260505190223 21 203 4.8 9.7 0.00 0.00 0.00 62 1017.7
20260505190121 21 225 4.8 8.0 0.00 0.00 0.00 63 1017.8
20260505190021 21 180 6.4 12.9 0.00 0.00 0.00 62 1017.7
20260505185923 21 180 6.4 8.0 0.00 0.00 0.00 62 1017.7
20260505185821 21 158 4.8 11.3 0.00 0.00 0.00 66 1017.7
20260505185721 21 158 1.6 1.6 0.00 0.00 0.00 65 1017.7
20260505185621 21 180 6.4 12.9 0.00 0.00 0.00 63 1017.7
20260505185521 21 180 8.0 14.5 0.00 0.00 0.00 63 1017.7
20260505185443 21 225 4.8 9.7 0.00 0.00 0.00 65 1017.8
20260505185402 21 158 3.2 6.4 0.00 0.00 0.00 63 1017.8
20260505185222 21 203 6.4 9.7 0.00 0.00 0.00 61 1017.8
20260505185122 21 203 6.4 12.9 0.00 0.00 0.00 62 1017.8
20260505185021 21 203 8.0 14.5 0.00 0.00 0.00 61 1017.8
20260505184922 21 158 6.4 11.3 0.00 0.00 0.00 62 1017.8
20260505184821 21 180 6.4 9.7 0.00 0.00 0.00 61 1017.8
20260505184721 21 158 8.0 12.9 0.00 0.00 0.00 62 1017.8
20260505184641 21 180 4.8 11.3 0.00 0.00 0.00 64 1017.8
20260505184521 21 225 4.8 8.0 0.00 0.00 0.00 63 1017.8
20260505184421 21 203 4.8 9.7 0.00 0.00 0.00 62 1017.8
20260505184321 21 203 6.4 11.3 0.00 0.00 0.00 62 1017.8
20260505184221 21 180 3.2 4.8 0.00 0.00 0.00 64 1017.9
20260505184122 21 203 6.4 11.3 0.00 0.00 0.00 61 1017.8
20260505184022 21 203 4.8 9.7 0.00 0.00 0.00 62 1017.8
20260505183942 21 203 6.4 11.3 0.00 0.00 0.00 63 1017.9
20260505183822 21 180 6.4 11.3 0.00 0.00 0.00 62 1017.8
20260505183721 21 203 4.8 8.0 0.00 0.00 0.00 62 1017.8
20260505183622 21 203 6.4 11.3 0.00 0.00 0.00 63 1017.8
20260505183541 21 180 4.8 8.0 0.00 0.00 0.00 60 1017.8
20260505183422 21 225 8.0 16.1 0.00 0.00 0.00 61 1017.8
20260505183341 21 203 3.2 6.4 0.00 0.00 0.00 63 1017.7
20260505183221 21 203 4.8 11.3 0.00 0.00 0.00 61 1017.8
20260505183121 21 180 6.4 12.9 0.00 0.00 0.00 61 1017.7
20260505183021 21 225 3.2 6.4 0.00 0.00 0.00 63 1017.7
20260505182921 21 158 4.8 8.0 0.00 0.00 0.00 61 1017.7
20260505182821 21 180 4.8 20.9 0.00 0.00 0.00 61 1017.7
20260505182721 21 203 8.0 22.5 0.00 0.00 0.00 61 1017.7
20260505182622 22 180 4.8 8.0 0.00 0.00 0.00 61 1017.7
20260505182521 22 180 4.8 6.4 0.00 0.00 0.00 61 1017.8
20260505182421 22 203 6.4 11.3 0.00 0.00 0.00 62 1017.7
20260505182323 22 203 3.2 4.8 0.00 0.00 0.00 62 1017.7
20260505182221 22 203 3.2 6.4 0.00 0.00 0.00 62 1017.7
20260505182121 22 203 4.8 6.4 0.00 0.00 0.00 62 1017.8
20260505182022 22 203 4.8 8.0 0.00 0.00 0.00 62 1017.7
20260505181921 22 203 3.2 6.4 0.00 0.00 0.00 61 1017.7
20260505181821 21 225 3.2 4.8 0.00 0.00 0.00 63 1017.8
20260505181721 21 225 4.8 6.4 0.00 0.00 0.00 63 1017.8
20260505181622 21 225 4.8 6.4 0.00 0.00 0.00 63 1017.8
20260505181520 21 203 3.2 9.7 0.00 0.00 0.00 63 1017.8
20260505181421 21 248 4.8 9.7 0.00 0.00 0.00 61 1017.8
20260505181341 21 203 4.8 6.4 0.00 0.00 0.00 64 1017.8
20260505181221 21 203 4.8 9.7 0.00 0.00 0.00 61 1017.7
20260505181121 21 180 9.7 14.5 0.00 0.00 0.00 62 1017.8
20260505181021 21 203 4.8 9.7 0.00 0.00 0.00 61 1017.8
20260505180922 21 180 8.0 11.3 0.00 0.00 0.00 60 1017.8
20260505180824 21 158 8.0 14.5 0.00 0.00 0.00 66 1017.8
20260505180722 22 270 3.2 9.7 0.00 0.00 0.00 60 1017.9
20260505180623 22 225 8.0 14.5 0.00 0.00 0.00 61 1017.8
20260505180521 22 180 4.8 8.0 0.00 0.00 0.00 62 1017.9
20260505180420 22 203 3.2 6.4 0.00 0.00 0.00 60 1017.9
20260505180321 22 180 4.8 9.7 0.00 0.00 0.00 60 1017.9
20260505180221 22 203 4.8 8.0 0.00 0.00 0.00 63 1018.0
20260505180121 22 203 6.4 11.3 0.00 0.00 0.00 59 1017.9
20260505180042 22 203 6.4 12.9 0.00 0.00 0.00 65 1017.9
20260505175921 22 23 1.6 3.2 0.00 0.00 0.00 64 1017.9
20260505175821 22 135 3.2 4.8 0.00 0.00 0.00 64 1017.9
20260505175721 22 113 3.2 9.7 0.00 0.00 0.00 66 1017.9
20260505175641 22 135 4.8 8.0 0.00 0.00 0.00 62 1017.9
20260505175520 22 113 3.2 4.8 0.00 0.00 0.00 62 1017.9
20260505175421 22 203 4.8 9.7 0.00 0.00 0.00 65 1017.9
20260505175321 22 203 4.8 9.7 0.00 0.00 0.00 61 1017.9
20260505175222 22 203 1.6 3.2 0.00 0.00 0.00 62 1017.9
20260505175121 22 203 3.2 8.0 0.00 0.00 0.00 60 1017.9
20260505175021 22 158 3.2 6.4 0.00 0.00 0.00 61 1018.0
20260505174921 22 158 4.8 8.0 0.00 0.00 0.00 61 1018.0
20260505174821 22 180 4.8 8.0 0.00 0.00 0.00 61 1018.0
20260505174722 22 225 6.4 14.5 0.00 0.00 0.00 62 1018.0
20260505174621 22 158 4.8 6.4 0.00 0.00 0.00 60 1018.0
20260505174521 22 203 6.4 9.7 0.00 0.00 0.00 65 1018.0
20260505174421 22 203 6.4 9.7 0.00 0.00 0.00 64 1018.0
20260505174321 22 225 6.4 14.5 0.00 0.00 0.00 59 1018.0
20260505174221 22 203 8.0 11.3 0.00 0.00 0.00 62 1018.0
20260505174141 22 225 3.2 6.4 0.00 0.00 0.00 63 1018.0
20260505174021 22 158 1.6 3.2 0.00 0.00 0.00 63 1018.0
20260505173921 22 180 3.2 6.4 0.00 0.00 0.00 62 1017.9
20260505173821 22 225 6.4 11.3 0.00 0.00 0.00 61 1017.9
20260505173801 22 248 6.4 17.7 0.00 0.00 0.00 61 1018.0
20260505173621 22 225 3.2 6.4 0.00 0.00 0.00 60 1018.0
20260505173520 22 203 6.4 12.9 0.00 0.00 0.00 60 1018.0
20260505173421 22 203 4.8 11.3 0.00 0.00 0.00 60 1018.0
20260505173321 22 203 4.8 9.7 0.00 0.00 0.00 60 1017.9
20260505173220 22 180 6.4 9.7 0.00 0.00 0.00 59 1018.0
20260505173120 22 203 9.7 19.3 0.00 0.00 0.00 59 1018.0
20260505173020 22 225 4.8 8.0 0.00 0.00 0.00 60 1018.1
20260505172922 22 203 4.8 9.7 0.00 0.00 0.00 61 1018.1
20260505172823 22 203 3.2 9.7 0.00 0.00 0.00 61 1018.1
20260505172743 22 158 6.4 11.3 0.00 0.00 0.00 61 1018.2
20260505172621 22 225 4.8 11.3 0.00 0.00 0.00 62 1018.2
20260505172523 22 203 4.8 8.0 0.00 0.00 0.00 60 1018.2
20260505172422 22 203 4.8 8.0 0.00 0.00 0.00 60 1018.2
20260505172321 22 180 8.0 12.9 0.00 0.00 0.00 60 1018.2
20260505172222 22 180 4.8 9.7 0.00 0.00 0.00 62 1018.1
20260505172201 22 225 3.2 8.0 0.00 0.00 0.00 59 1018.2
20260505171940 22 180 8.0 14.5 0.00 0.00 0.00 61 1018.2
20260505171820 22 180 8.0 16.1 0.00 0.00 0.00 63 1018.1
20260505171723 22 180 6.4 12.9 0.00 0.00 0.00 63 1018.2
20260505171621 22 180 3.2 6.4 0.00 0.00 0.00 65 1018.3
20260505171521 22 158 4.8 8.0 0.00 0.00 0.00 62 1018.2
20260505171421 21 203 6.4 12.9 0.00 0.00 0.00 63 1018.2
20260505171321 21 203 3.2 4.8 0.00 0.00 0.00 66 1018.2
20260505171220 21 158 6.4 11.3 0.00 0.00 0.00 63 1018.2
20260505171141 21 225 3.2 6.4 0.00 0.00 0.00 66 1018.2
20260505171021 21 225 3.2 6.4 0.00 0.00 0.00 61 1018.2
20260505170920 21 180 6.4 11.3 0.00 0.00 0.00 62 1018.1
20260505170822 21 225 1.6 3.2 0.00 0.00 0.00 61 1018.2
20260505170721 21 203 6.4 9.7 0.00 0.00 0.00 62 1018.1
20260505170641 21 225 3.2 6.4 0.00 0.00 0.00 63 1018.2
20260505170521 21 203 6.4 12.9 0.00 0.00 0.00 61 1018.2
20260505170421 21 180 8.0 12.9 0.00 0.00 0.00 62 1018.2
20260505170322 21 135 8.0 16.1 0.00 0.00 0.00 60 1018.2
20260505170221 21 248 3.2 9.7 0.00 0.00 0.00 62 1018.3
20260505170141 21 203 6.4 12.9 0.00 0.00 0.00 61 1018.2
20260505170021 21 225 4.8 8.0 0.00 0.00 0.00 62 1018.2
20260505165940 21 203 4.8 6.4 0.00 0.00 0.00 62 1018.2
20260505165821 21 180 4.8 9.7 0.00 0.00 0.00 63 1018.2
20260505165722 21 225 6.4 9.7 0.00 0.00 0.00 61 1018.1
20260505165623 21 203 8.0 14.5 0.00 0.00 0.00 61 1018.1
20260505165523 21 203 6.4 9.7 0.00 0.00 0.00 62 1018.2
20260505165421 21 293 4.8 12.9 0.00 0.00 0.00 62 1018.1
20260505165321 21 180 6.4 14.5 0.00 0.00 0.00 62 1018.2
20260505165221 21 203 4.8 9.7 0.00 0.00 0.00 61 1018.2
20260505165121 21 180 6.4 11.3 0.00 0.00 0.00 61 1018.3
20260505165040 21 203 6.4 14.5 0.00 0.00 0.00 61 1018.3
20260505164921 21 180 4.8 9.7 0.00 0.00 0.00 63 1018.2
20260505164821 21 180 3.2 6.4 0.00 0.00 0.00 62 1018.3
20260505164721 21 203 3.2 8.0 0.00 0.00 0.00 62 1018.3
20260505164640 21 203 3.2 8.0 0.00 0.00 0.00 62 1018.2
20260505164520 21 203 3.2 6.4 0.00 0.00 0.00 61 1018.2
20260505164421 21 203 4.8 9.7 0.00 0.00 0.00 63 1018.2
20260505164322 21 180 4.8 8.0 0.00 0.00 0.00 61 1018.2
20260505164301 21 225 3.2 4.8 0.00 0.00 0.00 62 1018.2
20260505164122 21 135 3.2 6.4 0.00 0.00 0.00 61 1018.3
20260505164022 21 180 6.4 11.3 0.00 0.00 0.00 61 1018.4
20260505163923 21 180 4.8 8.0 0.00 0.00 0.00 62 1018.5
20260505163821 21 180 4.8 8.0 0.00 0.00 0.00 64 1018.5
20260505163720 21 180 1.6 4.8 0.00 0.00 0.00 65 1018.6
20260505163621 21 158 3.2 6.4 0.00 0.00 0.00 67 1018.5
20260505163520 21 158 1.6 3.2 0.00 0.00 0.00 67 1018.6
20260505163421 21 158 1.6 4.8 0.00 0.00 0.00 66 1018.6
20260505163321 21 158 1.6 3.2 0.00 0.00 0.00 67 1018.7
20260505163223 21 158 3.2 6.4 0.00 0.00 0.00 64 1018.7
20260505163003 21 248 3.2 6.4 0.00 0.00 0.00 64 1018.7
20260505162824 21 180 4.8 9.7 0.00 0.00 0.00 64 1018.7